GFSMW_con_3kmhel_000.txt.gz
Helicity
76 83 90 96 93 113 123 120 130 114 241 271 231 211 216 223 220 217 190 201 214 207 222 219 223 284 273 244 251 260 229 232 282 239 171 178 179 185 215 222 230 233 236
127 141 136 138 144 117 107 97 107 117 64 160 206 210 177 174 185 170 140 134 150 178 188 205 214 243 267 245 245 275 250 253 277 261 227 209 121 160 178 193 184 187 209
118 133 138 135 138 163 134 106 75 81 77 46 96 138 154 131 109 89 78 76 90 114 143 162 207 221 283 256 249 281 296 236 203 266 259 249 248 194 127 108 92 112 162
103 96 111 131 126 123 103 77 58 65 83 107 117 132 120 104 97 76 72 64 57 69 89 119 151 177 228 257 251 250 281 244 242 207 271 251 268 271 192 146 119 136 167
103 100 96 94 98 94 85 82 94 132 130 141 147 155 174 152 131 143 163 173 169 161 153 151 143 156 189 207 203 206 220 242 252 239 231 254 264 266 309 245 148 117 178
103 95 98 104 94 88 92 89 95 135 184 217 244 250 248 227 213 198 185 169 162 154 172 182 167 154 149 159 167 188 197 229 178 190 185 215 263 241 239 267 250 214 130
100 106 94 77 73 82 76 74 107 156 186 202 218 189 165 155 154 145 125 122 117 116 145 138 149 148 158 160 162 159 146 142 140 129 134 148 192 204 209 218 224 237 210
118 88 77 69 76 79 101 124 136 167 173 167 147 132 127 102 98 92 78 85 91 93 99 113 119 135 148 155 148 142 148 148 151 145 136 116 120 139 168 188 180 191 188
77 82 81 105 113 149 135 107 100 119 142 140 136 139 115 109 91 81 70 77 84 95 100 92 94 106 115 127 142 141 154 157 146 142 132 149 155 171 163 157 165 179 194
114 108 93 115 172 176 159 157 123 98 105 120 112 99 91 92 87 74 79 79 80 80 73 68 68 77 90 102 125 133 139 151 156 175 192 187 176 172 165 168 167 164 174
110 100 152 242 256 221 189 151 113 115 131 119 103 95 79 59 45 49 53 61 61 61 50 44 45 47 40 48 72 98 117 152 160 146 139 150 152 147 142 138 135 132 125
132 199 255 276 267 230 195 163 141 135 119 102 94 83 76 82 89 99 108 113 109 99 98 87 72 60 61 61 62 77 98 89 101 89 108 110 103 108 91 69 70 77 87
287 299 319 295 250 226 190 162 146 124 108 100 98 97 100 107 108 106 109 111 111 101 90 85 88 93 83 75 75 74 59 65 69 85 81 74 66 50 55 82 97 83 81
246 283 289 249 247 193 194 180 148 126 114 120 113 91 101 124 126 120 117 107 92 79 72 67 72 78 71 90 96 102 105 82 86 84 73 49 26 31 45 69 79 87 101
219 261 269 244 175 177 220 166 151 145 126 109 99 96 119 126 118 118 104 90 79 70 62 64 65 72 65 77 88 100 116 122 117 107 90 39 39 31 40 76 69 95 81
225 269 252 204 162 183 204 173 147 118 94 85 95 118 137 138 121 105 104 96 87 77 70 68 67 64 74 68 79 131 149 162 157 140 102 72 48 31 108 103 103 113 112
233 241 245 220 214 199 166 151 132 104 159 148 160 163 151 133 112 94 86 79 63 50 49 47 47 57 54 39 93 151 177 224 199 179 143 114 89 80 81 85 79 79 79
301 297 280 273 236 197 159 87 165 229 200 159 157 150 134 122 90 79 68 63 57 59 64 59 60 57 57 40 128 164 116 104 129 123 69 92 116 48 90 87 66 66 73
291 315 305 253 208 127 66 190 261 233 211 192 161 148 126 101 91 88 83 87 83 84 80 65 62 62 75 93 99 90 91 106 124 105 119 143 133 64 97 66 52 83 99
354 315 234 212 149 75 215 279 240 218 186 163 137 120 98 90 91 82 87 93 101 99 97 94 80 57 92 90 92 120 134 139 131 104 97 98 106 96 85 70 74 74 48
292 270 198 173 196 207 234 254 206 176 148 127 109 98 91 88 72 88 101 105 105 90 96 98 90 80 93 102 83 93 117 121 113 86 74 54 28 54 67 76 84 39 43
344 300 261 218 215 263 247 200 170 144 136 120 104 92 87 86 87 94 108 103 99 98 98 81 78 95 104 84 75 69 78 93 83 81 59 55 40 62 61 56 68 76 44
344 301 253 217 245 236 193 163 150 135 121 108 93 87 99 107 92 105 113 113 95 96 91 88 97 113 118 117 58 45 57 66 66 57 42 32 41 37 35 56 84 64 36
269 202 223 223 204 172 145 139 132 124 117 112 109 112 110 92 116 115 110 113 99 93 93 105 121 125 113 96 74 63 36 26 36 19 7 18 22 24 31 32 42 28 28
180 213 190 168 157 146 136 131 130 125 124 121 113 115 130 129 126 114 115 101 101 89 119 130 131 114 99 77 39 41 49 42 23 -9 7 4 -24 -19 3 34 20 16 36
206 188 164 148 130 125 115 126 127 124 128 132 148 159 153 136 128 125 124 75 70 84 85 66 78 89 52 37 31 38 47 42 14 -22 3 -24 -31 -15 3 17 34 29 32

GFSMW_con_3kmhel_003.txt.gz
Helicity
136 131 124 128 120 125 104 92 92 68 55 122 142 127 134 126 113 117 122 120 114 113 143 160 173 195 217 207 212 252 221 225 246 206 179 166 162 190 212 191 193 190 215
135 136 133 135 136 119 116 104 87 74 31 6 0 20 17 35 34 33 39 60 68 73 93 126 138 148 177 178 189 225 218 251 236 244 219 178 131 147 152 158 164 158 173
104 121 125 127 114 124 108 96 84 78 61 23 21 45 64 91 115 110 116 116 111 113 108 115 120 120 150 148 145 195 233 213 205 227 242 225 190 173 167 175 190 185 207
86 95 109 118 117 98 69 63 83 100 109 109 119 137 125 117 101 80 88 138 139 138 143 133 124 110 104 123 142 149 169 195 199 179 212 206 197 215 187 185 182 183 196
70 89 90 84 74 67 67 79 104 124 112 140 138 145 162 151 141 154 163 161 149 127 120 124 116 116 111 122 124 135 138 144 148 161 169 169 220 232 252 196 165 144 203
79 76 74 68 79 95 110 99 102 130 144 159 176 166 165 155 153 150 134 116 103 95 111 119 117 110 122 138 143 157 166 165 162 158 152 155 161 168 169 189 178 191 188
63 55 70 89 115 115 95 97 118 141 130 135 133 124 115 109 97 80 65 68 65 64 79 67 74 77 90 100 105 125 149 168 182 187 179 169 157 135 125 123 127 128 133
66 83 88 114 112 108 119 122 103 112 110 91 94 98 100 76 74 80 73 81 84 81 84 86 81 87 95 103 106 107 126 130 156 168 180 180 167 168 171 183 181 141 106
93 98 111 140 130 151 140 114 104 96 98 94 85 93 89 91 81 78 69 68 62 70 78 71 65 64 64 71 81 87 99 121 136 154 162 172 159 152 155 167 180 174 154
126 120 154 160 177 169 153 134 99 84 78 87 92 92 96 78 59 46 64 70 71 69 62 65 68 66 57 59 66 64 74 97 113 124 139 141 132 117 81 62 69 81 107
114 154 199 235 214 186 154 127 113 104 109 113 98 90 81 72 52 48 57 81 83 87 86 87 80 77 79 76 65 80 78 97 90 78 90 104 102 93 88 74 66 64 56
132 199 264 242 223 193 174 141 119 118 119 104 90 73 53 64 87 88 99 96 90 91 83 74 67 67 65 70 76 89 88 89 70 60 80 79 80 77 55 35 40 53 70
258 319 285 252 215 197 167 133 125 126 112 88 69 75 93 91 95 97 104 106 106 95 82 70 65 57 49 41 58 73 85 80 74 77 92 93 93 65 46 38 31 32 39
232 292 281 223 219 206 174 165 166 157 133 104 106 118 109 126 122 110 121 121 104 82 76 59 46 41 38 43 47 73 88 81 68 88 113 110 105 97 77 75 81 59 65
253 232 217 218 232 188 186 211 210 175 110 106 100 93 136 118 108 120 121 108 96 90 80 74 70 64 62 61 81 88 94 82 82 95 88 85 81 74 82 127 91 79 67
188 201 224 241 208 235 235 206 171 152 126 91 78 168 135 127 138 145 143 128 107 89 76 70 64 63 72 54 83 119 124 109 78 58 52 57 39 38 77 114 101 88 104
188 234 245 240 259 265 231 208 186 133 107 63 137 157 148 152 156 140 122 108 86 67 67 72 78 83 77 44 80 111 127 100 76 77 74 63 72 97 104 86 90 85 68
186 241 247 292 313 266 260 187 110 110 86 134 164 155 164 159 145 128 109 96 85 81 84 79 79 79 76 60 101 116 125 124 121 117 108 114 96 90 86 79 79 55 26
229 261 307 324 299 277 194 125 66 116 167 175 158 154 158 154 144 134 117 102 97 90 85 89 92 93 85 66 91 130 138 124 121 118 105 80 57 39 55 59 63 54 60
269 292 294 280 251 160 75 94 91 178 186 151 139 141 146 144 136 123 114 102 104 110 120 117 94 68 85 49 70 107 130 125 122 110 76 32 42 29 33 47 64 102 83
247 277 269 268 209 112 114 133 172 194 148 139 132 134 132 139 125 127 117 121 120 112 108 103 93 79 67 83 74 89 114 117 111 90 64 61 19 22 29 24 31 40 26
265 269 257 229 199 152 140 183 202 143 134 129 128 130 133 126 113 121 138 133 131 124 117 99 98 97 104 82 81 64 64 65 106 91 83 61 18 15 10 26 34 40 29
233 230 227 212 168 173 207 187 149 139 123 125 128 132 128 128 128 165 152 144 126 122 110 113 119 134 136 130 60 49 46 55 78 104 57 21 -2 8 11 6 37 38 21
204 208 207 212 213 193 178 143 122 124 128 128 127 127 145 143 171 175 152 152 142 139 140 136 153 175 161 133 125 125 105 80 99 103 43 -18 -9 23 -11 -20 1 2 8
220 224 226 202 178 158 136 136 139 135 130 132 140 152 173 172 176 171 170 156 154 138 144 159 163 157 144 125 69 72 90 92 93 67 8 -56 16 8 -10 -17 -3 17 21
221 209 192 179 158 140 132 143 131 128 138 150 159 167 173 180 185 195 189 125 96 69 53 72 92 115 72 44 52 59 36 47 107 79 21 2 30 -32 -44 -15 19 52 47

GFSMW_con_3kmhel_006.txt.gz
Helicity
125 131 143 126 105 103 98 110 114 96 36 36 33 19 -0 9 18 25 28 40 49 62 72 81 74 83 98 93 101 136 141 126 156 156 145 140 154 165 180 195 188 173 189
147 147 138 138 131 114 123 131 116 90 39 2 2 17 36 67 81 103 130 137 129 131 118 97 88 83 77 81 95 116 111 120 122 162 134 113 99 119 122 158 196 174 180
93 95 121 123 125 138 116 93 83 85 77 47 22 54 89 137 160 165 155 147 118 117 108 95 80 76 67 61 69 72 67 84 106 121 152 155 158 139 142 180 188 173 180
63 85 93 118 101 72 61 72 80 70 69 60 76 102 85 83 62 56 58 85 91 91 97 94 93 85 80 97 94 97 96 111 114 124 133 151 164 170 132 149 188 192 193
57 76 98 87 69 63 61 56 69 89 80 103 84 68 78 46 50 75 90 95 91 82 80 88 81 87 84 96 101 116 126 114 136 146 157 166 172 177 203 174 154 155 168
70 92 92 80 82 74 80 66 81 92 107 112 109 97 103 90 90 93 76 64 49 42 52 61 53 48 60 73 75 82 91 108 123 139 154 165 166 156 171 175 147 126 107
68 77 86 93 87 87 77 77 84 94 76 90 105 99 82 80 80 73 68 65 49 31 43 39 41 35 43 48 49 55 66 76 99 117 129 139 160 166 169 173 159 148 128
59 75 87 85 78 94 104 104 99 102 91 82 79 76 84 61 64 66 50 39 34 30 54 63 59 55 53 53 59 61 69 77 104 119 134 137 144 158 168 173 182 134 102
72 92 99 88 99 134 135 108 96 90 83 69 63 73 70 69 55 39 22 38 51 63 80 70 62 58 58 61 59 45 52 70 84 96 104 117 116 137 159 178 202 220 190
99 114 112 121 155 157 135 135 113 96 83 84 82 73 67 56 52 53 65 68 81 92 84 78 72 68 64 53 57 46 60 66 73 75 79 76 98 108 124 146 152 157 163
98 114 141 179 188 178 172 151 134 121 113 98 90 94 90 68 50 55 70 105 100 77 60 62 59 59 53 50 50 50 42 68 66 60 61 68 82 87 100 103 104 95 93
108 162 180 225 221 206 198 176 152 135 117 127 136 91 62 61 70 71 87 70 68 76 73 73 64 57 45 34 25 23 42 32 47 39 28 31 46 55 51 52 40 40 35
201 222 236 255 232 208 225 192 169 155 152 138 112 93 78 57 47 63 122 102 91 92 91 71 53 44 39 37 27 46 49 57 65 52 65 56 36 34 22 25 25 4 55
210 231 273 257 241 245 232 205 200 198 173 149 121 86 60 52 73 79 85 94 92 80 82 84 74 67 67 64 79 103 113 113 100 101 66 37 32 29 28 4 15 30 28
196 236 264 264 253 254 245 248 263 229 174 138 94 71 81 96 85 87 90 92 100 108 97 92 90 82 77 80 117 131 136 134 138 111 71 55 45 47 61 67 50 60 64
161 219 259 251 260 265 279 277 238 182 111 74 65 83 98 98 88 89 99 110 107 95 91 95 91 104 112 105 129 146 145 138 130 106 73 63 42 39 68 58 71 79 92
148 209 237 257 268 276 261 247 191 105 53 69 62 82 100 96 101 107 110 108 107 109 117 122 125 130 132 91 107 104 119 120 111 105 103 97 91 72 33 7 25 37 36
145 230 279 299 280 266 245 178 113 81 96 33 38 78 116 120 111 110 105 115 125 133 134 134 137 138 133 78 80 80 113 117 115 116 114 126 115 54 40 36 34 16 24
144 229 249 265 283 248 192 169 125 119 68 50 83 124 122 117 108 115 128 130 133 136 140 147 143 135 128 69 76 95 122 134 136 126 130 110 75 42 27 46 23 23 29
191 228 264 264 238 215 182 152 143 112 81 112 116 113 108 113 136 128 115 140 139 149 162 163 139 107 120 54 64 97 142 138 136 126 111 47 76 34 39 30 37 16 -10
162 205 224 218 204 182 178 164 132 103 114 109 111 118 131 131 114 130 139 142 151 159 165 170 158 128 99 89 63 71 102 112 125 128 116 137 64 70 42 17 71 17 -42
163 192 218 208 195 196 185 151 125 113 112 116 120 124 123 117 121 129 137 151 162 169 179 176 170 140 108 78 67 40 37 44 99 108 139 154 129 68 20 59 -24 -18 -15
172 198 211 217 201 179 167 147 131 127 123 126 126 126 116 123 116 122 130 161 170 192 195 180 169 158 148 133 54 32 32 45 85 113 104 142 51 4 37 32 -2 -10 -14
166 200 214 196 180 173 145 135 132 131 133 128 125 124 126 100 131 142 160 184 190 195 174 163 172 159 143 125 121 114 106 88 112 97 139 100 50 25 48 65 90 86 -22
177 207 206 188 164 152 159 152 139 141 140 136 127 118 122 119 126 147 167 172 184 156 157 162 163 151 142 126 66 85 113 113 104 74 124 104 70 66 86 103 93 32 40
193 197 180 175 163 155 141 142 150 147 136 124 110 108 117 132 143 156 167 123 93 71 59 52 94 123 79 50 58 61 56 72 50 98 130 115 87 91 103 -0 56 83 92

GFSMW_con_3kmhel_009.txt.gz
Helicity
112 113 137 146 135 160 145 140 121 77 33 41 63 100 119 114 135 134 151 146 133 131 125 105 104 92 76 74 70 55 53 55 39 59 40 34 53 26 60 89 97 86 104
142 158 160 156 154 124 122 137 125 96 68 40 22 37 70 118 124 142 165 160 155 144 118 110 98 98 81 88 79 69 42 44 55 34 41 8 41 1 68 67 88 64 89
126 122 162 165 128 140 132 112 107 96 72 25 27 58 83 118 142 154 132 131 114 106 97 84 68 65 57 51 48 51 53 40 50 82 74 73 130 97 109 132 112 91 116
112 104 121 119 105 88 80 94 105 100 98 95 127 157 133 128 95 86 77 82 89 82 82 72 67 65 57 79 78 89 92 104 121 116 130 147 160 147 75 134 195 110 164
91 91 87 72 70 74 83 77 93 102 104 121 103 85 85 54 57 69 86 86 74 67 71 54 44 39 30 46 59 73 78 66 77 84 99 112 134 138 192 133 162 139 112
97 82 74 65 86 88 90 78 95 94 100 111 102 94 86 81 84 94 86 65 37 11 19 15 15 25 43 57 55 56 58 72 84 99 112 130 152 163 174 181 142 112 91
95 81 70 74 91 98 82 91 118 128 109 114 109 96 90 95 90 76 65 64 37 15 33 50 65 67 70 67 64 68 71 83 84 86 103 118 130 128 136 143 141 122 118
89 74 72 86 102 95 104 132 140 129 126 117 116 106 100 71 69 70 48 35 35 23 65 71 73 82 86 85 73 54 33 32 25 34 73 79 82 80 99 111 114 141 140
97 82 86 103 110 117 134 163 172 152 131 115 107 107 88 81 53 51 49 40 39 61 99 99 94 84 69 52 38 32 35 44 52 54 65 54 54 56 72 85 140 164 152
104 104 109 125 137 164 184 212 190 169 135 126 111 102 101 82 55 57 74 83 102 118 101 86 72 52 48 48 48 43 44 56 61 60 60 51 66 78 82 106 116 136 178
101 119 136 148 176 226 233 216 197 174 161 149 136 136 100 71 63 79 89 105 109 89 76 65 58 60 57 55 48 43 41 65 58 60 68 76 97 101 85 86 86 102 106
120 141 165 198 229 265 239 216 218 192 168 151 143 116 93 88 102 91 105 110 91 76 64 67 68 65 55 50 52 61 82 104 121 125 107 116 99 81 65 58 39 22 -11
158 199 245 247 257 275 223 223 234 193 162 156 152 131 106 108 102 95 99 99 87 79 79 72 65 61 63 66 75 112 143 154 143 130 123 113 108 96 81 63 44 42 40
197 244 262 256 266 238 232 234 222 193 165 160 136 110 103 77 65 95 110 89 77 77 76 67 65 67 70 84 135 147 143 135 124 121 121 114 96 88 76 75 70 75 50
206 223 250 252 250 256 248 232 227 197 167 158 124 112 44 27 107 118 89 79 78 65 57 61 66 71 107 136 135 137 145 143 136 132 118 116 105 88 106 126 105 94 106
170 175 209 232 248 256 253 250 228 206 165 121 119 52 31 75 102 89 82 72 65 67 60 64 81 104 119 106 119 138 151 136 137 120 111 122 106 104 67 57 43 56 90
129 148 185 229 267 263 263 248 218 172 131 119 90 85 79 88 93 85 81 88 73 59 67 88 94 96 107 92 101 102 136 152 131 122 126 130 107 68 80 49 40 74 43
122 163 236 278 283 276 254 222 184 162 123 88 86 84 101 115 102 100 89 78 67 70 80 80 78 94 115 80 101 106 134 136 118 108 95 84 87 74 64 73 101 78 75
93 155 227 268 274 255 228 200 181 119 95 101 93 120 117 110 103 95 79 66 72 79 77 78 83 99 109 87 94 107 133 118 103 97 83 77 79 57 17 71 89 71 94
126 198 242 263 262 234 208 184 156 124 118 104 113 111 104 96 87 78 71 63 73 80 98 98 103 85 109 73 75 103 129 116 123 98 81 54 54 37 88 131 92 82 72
174 201 218 220 214 202 176 181 145 128 115 112 114 101 88 85 75 75 59 71 82 91 105 108 109 109 98 96 72 70 100 113 126 116 111 117 45 83 122 59 85 80 53
150 170 203 210 193 189 184 155 126 125 127 114 87 83 93 94 87 66 72 81 88 99 97 104 135 134 100 83 68 46 43 43 106 111 133 115 72 53 48 44 26 14 32
127 156 181 196 187 181 171 143 139 128 100 90 98 102 94 87 65 68 82 100 101 114 115 133 156 150 139 128 57 36 39 51 97 129 104 58 35 55 69 23 9 26 109
132 166 180 171 172 170 154 144 117 94 98 99 94 93 84 61 77 98 105 113 109 109 115 132 147 160 142 132 124 122 124 96 121 113 106 75 55 69 53 59 81 105 24
145 166 176 169 176 158 132 112 104 110 104 96 96 82 75 79 90 99 102 97 93 88 99 118 141 151 150 131 80 94 115 117 125 87 126 114 81 72 74 88 95 48 41
184 195 181 170 137 119 119 117 106 101 104 104 87 75 81 97 103 106 117 77 51 30 33 44 90 126 87 66 66 55 54 86 60 111 109 92 78 80 60 48 74 89 89

GFSMW_con_3kmhel_015.txt.gz
Helicity
94 108 128 132 141 157 168 159 129 90 77 93 128 136 137 136 158 168 176 169 175 172 166 138 126 118 105 98 88 75 72 52 63 45 64 65 28 100 152 230 130 123 153
105 126 137 162 188 201 201 192 158 112 100 96 114 120 132 150 152 153 162 159 160 153 135 131 110 100 77 79 65 53 42 54 70 69 56 39 27 122 125 109 106 74 116
120 138 167 191 209 243 220 180 147 126 104 91 88 107 112 117 140 142 129 133 130 127 113 94 73 59 39 43 51 73 81 67 61 90 67 41 74 68 58 77 41 153 126
149 180 190 203 220 221 175 142 122 107 97 98 112 121 117 128 117 100 90 85 95 87 76 61 58 56 46 60 55 94 75 73 72 76 86 87 88 87 82 121 126 97 129
187 185 189 197 212 185 154 130 122 115 102 95 94 99 115 97 77 69 72 71 73 77 76 43 38 50 64 86 82 82 86 84 98 94 81 75 89 94 135 140 151 157 131
201 188 175 188 195 154 133 119 118 117 105 113 126 133 123 102 86 90 83 74 70 49 58 40 54 83 89 86 85 94 92 86 87 96 79 95 106 124 151 157 159 154 158
138 133 152 171 151 129 128 122 120 125 119 134 156 149 125 112 109 90 78 80 68 58 66 70 86 98 95 98 97 96 83 91 95 82 108 111 109 140 158 151 176 178 190
83 97 124 131 127 124 134 132 129 128 132 153 177 155 137 117 106 97 99 99 78 74 95 108 119 116 109 105 102 96 90 89 110 87 131 127 129 146 172 176 211 204 226
81 98 121 118 123 132 144 144 136 143 163 186 184 168 159 148 119 116 111 92 84 96 122 130 121 110 105 103 101 103 93 109 104 119 110 122 164 164 215 203 246 280 238
108 116 113 119 128 148 159 153 154 168 193 217 198 186 174 153 129 120 111 101 93 130 150 134 117 106 101 101 104 101 103 103 115 118 134 142 161 177 205 214 281 308 304
125 114 115 124 138 143 154 169 174 189 221 230 212 197 178 151 134 136 103 88 97 133 131 127 113 105 103 99 105 101 92 114 116 122 134 139 147 194 241 256 250 250 233
104 107 128 137 134 143 167 178 190 214 254 237 217 205 176 149 147 115 98 77 114 139 135 122 110 98 92 101 98 99 102 128 125 127 140 154 197 199 234 238 221 231 204
117 125 152 141 141 160 180 195 217 253 258 237 219 202 179 156 123 116 87 106 135 131 120 113 96 86 98 99 91 89 139 128 133 139 162 163 166 202 216 209 214 180 165
118 136 164 154 151 165 197 224 259 271 254 244 229 214 187 157 125 94 97 122 127 114 107 91 85 87 89 98 85 156 138 134 140 144 137 131 174 187 197 173 156 154 158
132 159 159 162 165 186 225 250 281 262 260 255 242 211 166 116 94 94 101 120 112 99 82 80 79 88 110 101 167 144 142 137 127 109 108 145 151 101 104 161 162 141 155
159 153 153 156 174 201 237 268 259 279 267 261 230 173 119 95 93 97 114 113 100 79 70 75 92 115 121 106 109 138 141 121 100 93 123 145 118 137 112 97 70 89 134
133 130 128 145 195 219 227 227 269 279 277 239 194 146 111 89 98 117 117 97 74 72 87 96 105 120 129 101 107 105 133 100 93 99 139 151 160 136 133 93 88 101 51
154 140 150 190 221 229 221 286 291 287 251 214 172 128 80 97 122 113 92 81 89 98 105 107 119 130 136 102 103 91 100 106 89 115 141 148 145 127 102 127 125 133 123
193 187 196 191 202 220 263 270 276 251 223 202 162 84 99 122 118 105 100 93 105 103 110 117 122 119 131 96 89 93 105 113 105 140 142 121 126 91 93 127 120 101 107
207 188 184 187 181 212 237 240 246 238 243 197 120 97 119 124 111 101 94 95 97 111 126 117 116 97 122 96 76 86 126 120 137 148 135 86 102 87 87 106 107 109 105
165 151 139 156 196 207 208 248 235 236 193 116 107 128 121 118 106 100 89 106 120 120 104 108 118 118 110 105 86 69 112 130 147 160 150 144 89 69 62 48 104 98 66
120 130 154 187 177 187 209 229 221 183 134 123 149 143 118 101 99 100 114 122 111 105 108 113 118 130 125 123 89 72 87 89 142 151 149 151 81 64 44 71 32 11 22
111 129 140 153 171 186 186 204 186 149 143 161 139 114 92 85 104 128 125 125 113 119 122 125 139 152 168 142 82 95 81 85 120 136 108 99 69 52 79 35 10 -12 -3
100 108 127 153 179 179 175 183 173 157 156 133 111 95 97 107 106 122 126 140 138 140 138 143 155 161 154 136 135 130 127 99 121 110 127 85 64 59 45 53 23 11 9
101 108 138 173 188 177 192 179 152 143 127 108 105 109 116 113 111 110 129 139 128 143 153 147 154 154 158 143 75 75 112 125 108 91 106 103 92 90 61 11 26 58 74
121 144 184 197 208 187 174 151 133 117 113 121 126 122 118 115 116 134 143 103 87 99 111 90 106 140 88 51 43 51 52 54 42 93 104 99 84 0 7 41 68 107 24

GFSMW_con_3kmhel_021.txt.gz
Helicity
217 149 120 129 127 129 132 154 207 284 409 447 422 399 321 316 288 256 228 221 200 192 159 133 130 119 103 88 87 54 49 43 59 19 32 16 35 86 93 63 89 71 100
241 182 167 191 203 171 169 211 269 320 317 298 268 258 243 231 219 202 196 171 157 130 117 96 80 80 74 88 76 53 31 23 42 -0 -22 -28 1 88 39 80 69 77 66
288 265 250 254 252 247 233 235 249 278 259 238 229 228 236 206 180 165 143 122 115 100 76 66 57 61 50 45 35 44 49 32 36 64 30 35 62 44 44 48 73 57 69
371 340 325 296 261 262 257 263 270 262 214 175 171 141 119 124 114 113 92 95 87 80 68 57 51 44 31 48 47 63 58 61 68 56 91 99 119 87 76 130 79 60 93
408 394 359 308 275 283 309 297 281 240 172 159 141 143 143 131 136 127 118 93 85 75 54 44 38 42 44 54 71 83 92 72 72 81 79 82 89 100 137 111 141 108 113
405 422 375 362 334 318 328 320 318 273 234 201 167 155 155 166 184 154 133 92 61 46 47 50 54 58 65 68 72 75 80 75 78 86 96 108 119 126 127 124 113 115 137
474 481 407 382 339 311 307 303 292 277 254 243 211 187 188 201 188 154 119 96 65 49 47 42 45 50 62 78 81 78 78 77 86 92 106 131 153 150 166 179 159 149 159
457 383 332 344 308 276 276 281 264 249 234 226 213 203 206 199 187 155 128 107 86 63 50 51 60 69 79 86 89 80 82 89 99 107 128 142 134 136 167 184 190 169 180
401 340 295 272 257 235 236 234 229 220 208 200 211 216 214 209 185 166 143 114 97 77 71 68 69 79 93 94 90 84 84 94 100 114 131 136 123 135 157 175 186 217 214
340 276 234 231 212 202 224 219 203 199 188 203 208 210 207 199 190 172 153 129 106 88 80 71 85 94 96 91 90 88 93 99 112 130 135 135 137 149 151 172 191 196 217
264 234 195 184 196 221 224 211 210 214 217 217 215 219 221 217 195 168 137 119 101 94 82 87 94 96 90 85 90 91 89 113 128 116 151 138 133 148 158 165 181 195 212
247 232 203 222 234 231 222 210 224 227 222 215 225 234 233 222 193 161 131 114 102 84 92 100 95 89 85 82 90 105 120 145 144 135 138 141 150 147 146 168 172 188 188
258 249 238 233 231 228 219 223 234 236 231 240 248 251 249 216 175 145 127 109 97 98 98 94 88 85 87 97 109 119 127 143 130 130 140 142 133 137 156 163 164 161 150
274 283 258 221 210 211 215 237 247 244 248 259 257 260 227 182 153 133 113 101 93 94 91 90 88 84 92 102 104 121 135 136 139 134 140 132 129 137 134 141 147 162 164
288 295 265 235 216 219 234 257 262 256 262 273 270 231 191 167 150 124 99 86 90 93 87 84 82 88 104 107 109 117 137 147 146 144 144 130 101 86 104 145 141 135 150
262 277 257 226 204 221 264 289 262 251 266 260 238 208 189 174 147 96 72 94 98 87 82 83 94 108 109 74 71 100 150 154 156 154 147 158 103 96 70 74 61 67 128
269 269 261 213 218 264 304 292 264 253 244 238 220 207 189 160 109 71 97 98 87 84 81 93 114 119 121 78 91 93 136 159 174 162 157 148 130 92 121 79 53 81 67
241 259 235 240 280 323 325 310 270 250 241 225 210 182 153 131 104 96 95 89 85 90 99 112 118 128 121 87 87 101 153 161 161 164 161 134 122 111 80 95 105 134 90
241 271 268 307 344 356 348 311 253 231 218 192 173 154 137 125 103 104 95 89 91 104 122 129 124 132 123 94 113 131 165 163 176 176 164 125 112 72 42 72 102 79 92
354 378 360 370 402 336 301 273 226 206 193 174 144 131 121 105 102 94 86 89 101 117 135 122 116 95 124 110 110 149 172 175 176 167 127 70 83 34 25 68 82 85 69
388 381 360 334 278 268 259 227 211 191 155 141 133 117 108 97 77 79 83 99 118 125 125 121 120 117 103 117 100 116 156 149 159 148 137 126 45 38 39 44 67 49 -39
263 246 257 229 206 211 238 210 187 135 139 129 118 108 93 74 73 79 98 112 113 112 119 128 131 117 106 71 84 80 99 71 123 131 133 127 53 38 26 19 -2 -11 -34
180 179 207 225 194 188 168 160 119 128 123 123 122 101 83 74 87 105 105 105 107 119 120 128 121 111 113 140 72 73 50 73 104 119 81 81 42 36 48 -5 -4 -19 57
128 143 178 189 173 137 140 142 125 125 131 124 102 85 92 104 111 103 96 102 113 122 115 104 119 128 143 139 137 119 110 90 99 78 103 68 51 -1 -1 22 45 20 29
109 125 126 122 130 148 152 137 133 122 119 102 94 102 107 110 96 90 90 106 96 101 114 120 137 155 155 132 85 101 104 98 82 58 85 88 68 20 50 70 59 83 86
90 99 98 113 110 139 147 127 109 105 104 116 114 106 102 95 96 104 106 85 89 79 73 93 132 150 94 64 71 63 59 47 42 86 101 -3 12 43 57 79 118 117 102

GFSMW_con_3kmhel_024.txt.gz
Helicity
141 160 164 145 161 174 168 184 275 356 468 505 461 439 351 306 326 270 237 213 180 165 147 130 121 100 95 92 101 76 86 72 66 48 61 67 101 108 146 92 148 58 123
188 168 187 176 158 160 180 231 271 307 390 434 412 389 356 288 256 243 254 211 185 161 140 112 91 86 74 91 90 78 56 51 52 14 -11 -10 31 70 51 92 63 93 95
207 220 227 209 202 189 184 203 222 261 330 375 405 391 347 280 266 251 229 191 160 142 112 90 71 65 62 71 65 64 63 45 40 42 36 23 52 39 37 40 61 73 85
255 313 314 281 254 227 223 225 230 260 268 265 270 245 233 221 175 167 163 164 147 120 98 78 60 55 51 71 61 66 59 59 62 49 93 68 90 81 71 96 57 63 83
342 368 348 316 303 280 275 263 272 253 215 206 206 205 207 193 169 170 174 155 131 112 92 69 57 59 61 63 77 85 97 80 75 78 69 68 88 90 126 109 109 84 88
389 476 469 422 372 349 338 297 283 256 219 203 189 196 193 172 173 150 152 129 115 102 88 73 63 64 76 82 85 91 99 93 86 82 91 93 91 105 113 123 121 136 145
477 483 472 412 377 373 376 317 303 265 231 231 210 187 166 157 158 143 136 128 109 91 84 77 83 79 86 97 99 102 99 86 85 79 85 102 123 152 168 162 148 163 185
471 486 456 436 407 398 410 340 323 293 268 250 224 201 190 189 180 164 161 143 113 92 83 91 95 100 112 114 107 94 88 83 87 90 107 125 142 157 175 189 198 168 208
501 462 418 400 381 380 361 331 323 289 266 253 235 224 213 211 204 195 175 144 125 110 116 115 115 121 119 114 108 95 89 90 87 97 121 130 132 148 165 202 233 269 267
447 417 370 350 332 337 334 303 264 242 236 245 237 229 223 218 203 189 176 152 137 126 131 130 127 126 120 108 102 98 92 95 107 110 123 133 150 167 174 197 217 237 262
390 363 316 302 309 308 279 262 272 268 248 245 255 245 225 210 203 193 171 145 135 132 135 128 130 120 108 104 100 98 95 114 105 118 131 140 147 160 180 190 203 219 221
354 304 271 267 255 232 243 238 253 241 220 242 250 239 218 209 209 187 163 139 137 134 128 124 116 113 106 98 104 109 109 106 126 136 144 151 151 152 157 181 185 197 198
264 233 234 219 204 208 224 233 232 224 228 246 248 232 218 210 195 176 151 148 143 129 118 122 124 115 109 104 104 102 105 129 145 148 150 141 154 158 159 171 183 179 172
216 223 208 190 187 201 227 241 237 224 229 241 236 221 209 195 187 172 163 143 125 121 135 136 120 109 101 99 93 111 135 144 143 146 155 162 172 161 153 165 166 186 178
192 203 200 189 211 229 235 235 234 233 229 234 216 209 203 198 194 177 149 126 128 136 135 128 113 104 102 92 106 128 138 134 151 166 179 173 143 124 147 164 169 149 162
186 196 201 201 192 211 237 262 257 233 215 204 202 203 207 196 179 161 140 137 141 139 130 120 103 98 100 98 118 135 140 158 171 167 171 191 142 126 100 105 77 76 130
209 220 211 185 193 234 257 248 230 207 199 199 199 197 188 181 168 155 156 144 137 127 113 103 108 103 111 119 120 128 171 172 165 170 184 188 174 139 130 79 42 75 52
179 204 213 207 226 243 256 273 233 198 191 187 183 179 177 174 168 160 143 133 122 116 108 103 96 104 108 115 136 148 167 163 166 175 183 174 143 111 87 100 129 129 110
198 218 227 270 279 278 270 262 207 193 190 167 170 179 178 171 152 144 150 122 115 112 104 97 97 109 107 109 132 136 154 144 151 165 173 122 104 66 32 95 107 98 93
254 290 279 289 301 268 279 243 192 180 170 172 173 166 157 152 145 137 140 107 108 92 93 103 109 104 131 96 102 117 141 145 157 156 124 57 72 39 59 75 93 85 81
276 286 285 282 276 269 258 231 195 175 168 179 176 157 146 147 141 135 116 102 93 96 108 112 120 128 121 116 76 100 145 146 157 144 128 110 47 45 36 34 89 47 -35
310 298 319 286 248 243 242 200 190 178 180 167 158 155 156 148 137 130 106 97 100 104 110 119 127 120 111 68 88 104 113 110 145 143 129 109 47 36 37 49 -8 -19 46
292 261 276 254 207 191 201 217 162 158 161 161 173 175 161 148 132 113 99 101 107 115 118 125 120 113 114 130 79 81 97 104 120 125 83 70 49 47 53 1 14 -31 27
205 193 214 206 199 183 179 168 147 149 160 184 175 162 157 137 113 101 100 103 113 119 122 122 130 128 125 133 131 127 120 110 104 81 103 68 61 -19 29 70 35 35 26
139 151 164 172 160 155 171 158 154 157 177 170 163 149 125 106 104 110 100 113 104 112 124 133 141 142 137 129 118 112 114 108 86 65 90 90 44 83 81 54 62 51 33
132 160 157 155 137 162 169 158 148 152 161 159 135 109 104 109 115 119 125 111 105 96 103 125 143 157 119 94 88 80 79 56 49 84 91 -5 87 68 57 82 92 81 52

GFSMW_con_3kmhel_027.txt.gz
Helicity
10 50 104 121 133 152 183 236 307 370 435 444 474 455 415 401 379 326 253 229 190 175 156 137 126 105 93 81 84 69 93 76 65 48 68 90 113 117 133 84 112 96 92
55 90 148 154 138 139 164 228 296 352 405 464 462 418 420 379 309 269 251 222 210 178 162 130 108 100 79 90 87 88 69 69 65 36 23 32 59 112 84 93 122 124 93
105 171 179 166 164 156 167 223 276 348 402 473 500 505 436 400 306 250 259 244 207 178 146 125 102 93 77 69 65 66 73 66 63 68 57 34 62 62 58 120 113 69 76
64 155 232 210 178 166 192 231 249 264 297 341 387 335 299 278 213 234 231 227 197 171 139 123 110 90 60 76 67 77 67 62 62 67 106 93 101 103 102 88 107 52 70
79 157 234 218 208 210 220 235 252 250 247 269 302 329 333 305 274 248 241 216 192 164 147 124 97 87 73 73 90 91 97 86 87 88 90 92 103 92 146 142 104 69 59
140 211 337 317 302 283 274 269 260 253 236 236 245 261 290 269 255 210 203 182 166 159 140 125 113 102 102 94 88 97 113 108 104 96 93 95 102 108 104 122 110 98 86
227 314 365 337 309 287 301 304 288 275 240 236 231 242 243 212 185 159 158 155 151 142 140 127 125 111 105 107 107 114 117 106 105 96 96 109 121 129 133 127 110 123 134
205 290 372 387 364 328 337 330 320 320 281 257 249 238 223 197 178 159 164 168 160 151 139 140 132 130 128 121 120 113 111 106 101 97 107 115 121 132 148 150 144 121 146
219 286 420 435 397 364 354 349 370 351 317 287 263 247 220 205 188 189 189 176 164 150 145 142 141 138 131 126 127 121 113 102 97 94 94 124 128 136 156 166 181 195 191
258 333 414 468 408 391 389 375 347 321 310 294 261 243 225 218 210 201 191 182 169 165 156 154 151 149 140 135 128 116 102 102 105 105 125 136 143 139 146 170 180 195 225
332 427 494 459 415 402 371 380 358 341 315 287 273 268 249 236 222 212 193 181 176 173 170 160 163 159 141 134 127 113 95 107 110 119 135 131 134 156 167 171 179 195 204
278 374 394 364 350 365 357 361 338 314 286 277 270 262 246 232 230 208 192 181 187 177 167 166 168 153 141 124 114 105 102 104 116 122 130 128 145 165 173 185 174 188 209
269 304 325 304 331 334 332 309 285 287 275 274 267 257 243 231 212 201 192 193 187 176 176 178 166 145 125 111 105 102 103 119 118 115 133 147 162 171 176 181 196 196 167
218 253 269 273 288 283 271 259 269 259 258 258 247 239 220 207 200 195 198 196 182 188 186 163 144 132 110 103 99 106 112 110 113 132 150 157 175 174 183 179 172 192 187
164 205 241 244 246 248 233 239 247 247 243 241 231 214 209 204 201 209 207 198 195 181 161 151 137 120 107 98 96 104 103 116 132 134 141 159 165 170 174 183 185 163 173
149 178 206 224 212 207 218 239 247 234 220 216 210 201 199 204 208 211 203 202 194 168 149 141 124 114 104 86 102 119 135 135 126 137 159 195 161 143 117 108 79 77 111
143 175 189 186 186 206 248 236 216 213 211 204 188 186 192 205 214 206 211 196 163 147 148 133 117 106 99 82 102 108 140 136 145 165 188 180 158 128 135 91 55 79 132
123 146 181 202 217 230 224 238 214 196 194 194 185 184 200 206 206 215 192 160 154 154 142 116 105 99 98 95 95 94 143 159 175 184 165 147 131 112 85 107 131 86 98
150 179 196 223 221 222 221 239 216 206 195 173 174 190 193 206 200 181 179 171 159 133 112 101 96 108 103 92 98 119 158 174 167 148 132 98 103 67 34 105 102 102 111
201 229 228 236 246 210 239 248 206 193 175 165 180 188 198 185 186 191 190 136 119 109 103 104 113 92 115 98 110 136 161 161 155 143 101 82 86 38 54 82 93 101 88
204 215 213 221 219 239 260 246 201 171 163 182 197 198 199 202 195 173 136 123 116 109 118 109 100 110 114 126 119 129 154 155 151 132 134 119 56 40 35 40 90 95 77
221 227 278 268 237 234 257 222 196 173 193 201 213 219 214 193 161 160 135 121 116 111 99 105 118 121 123 101 115 125 119 103 132 131 121 117 45 34 38 49 34 24 7
243 240 283 280 239 220 211 213 172 193 215 231 225 214 185 178 159 142 127 114 107 97 102 119 123 126 115 134 101 102 81 82 108 131 83 61 50 51 49 35 27 24 96
236 238 277 271 239 208 216 215 202 209 219 227 211 188 169 154 139 124 108 98 94 103 114 116 128 129 130 139 151 132 119 98 115 93 117 74 70 50 54 69 74 101 85
214 208 216 220 217 221 229 199 192 200 224 200 175 165 150 141 128 112 89 98 96 102 120 129 136 139 141 131 117 114 118 118 100 87 105 95 82 80 82 81 92 99 103
144 185 194 210 196 213 216 203 182 168 173 174 159 144 135 126 111 107 112 102 102 102 107 111 130 148 121 108 99 78 90 70 69 95 87 89 86 85 80 89 102 135 108

GFSMW_con_3kmhel_030.txt.gz
Helicity
104 81 53 67 121 135 147 136 188 260 396 460 480 426 417 384 425 379 320 273 211 196 190 160 139 108 84 66 68 40 59 47 42 31 57 80 105 113 130 111 90 124 67
53 60 54 78 119 116 127 152 189 268 367 444 478 480 439 405 402 370 332 230 206 197 195 155 126 100 81 82 61 51 25 28 20 5 -11 22 45 106 98 77 112 98 80
31 15 57 87 131 120 135 167 197 290 388 473 541 584 517 480 431 335 283 228 216 224 186 152 120 104 66 47 39 33 37 33 26 32 23 9 36 56 57 122 86 101 50
114 40 55 119 132 128 146 167 216 289 333 402 448 456 399 334 288 266 244 242 226 210 173 144 119 95 74 70 38 31 25 20 34 38 80 81 89 66 70 88 106 63 80
139 106 104 126 192 181 162 171 223 263 289 342 363 404 420 325 332 284 278 256 236 201 170 135 117 108 80 69 72 69 67 45 47 49 64 89 114 122 154 145 109 70 69
134 126 152 187 235 211 188 187 220 236 258 292 311 325 367 312 305 273 273 232 204 180 155 139 125 105 96 94 86 90 96 80 81 82 87 87 94 107 110 135 109 85 58
109 160 176 192 225 207 208 203 215 247 244 247 270 263 277 278 272 247 216 188 174 153 145 131 125 111 115 123 115 108 97 91 94 95 95 95 98 114 123 123 97 96 90
108 161 167 210 247 239 238 225 229 279 247 246 263 273 281 269 242 209 192 187 162 146 132 133 141 148 143 131 120 104 98 103 99 97 94 104 116 133 142 143 112 72 111
83 148 183 221 274 267 280 294 297 311 292 281 284 290 293 277 239 230 219 195 167 147 147 155 163 157 145 132 129 115 104 103 99 99 100 126 123 139 155 171 176 164 140
102 166 200 238 327 331 392 356 314 311 324 322 308 298 293 274 250 235 221 201 180 167 166 166 168 150 139 138 127 109 104 107 106 109 117 125 151 162 175 187 197 212 212
156 219 212 283 403 384 349 376 358 368 381 347 332 324 307 288 267 242 210 194 180 169 167 167 155 148 145 129 123 111 99 115 113 118 123 126 146 182 198 218 218 212 217
209 296 332 353 381 358 332 365 358 384 375 337 332 320 300 277 259 233 210 189 179 172 169 159 163 151 127 124 125 117 114 112 115 114 133 139 156 174 190 206 196 208 206
225 272 276 330 342 349 350 346 347 386 377 344 324 300 276 257 241 226 205 185 174 176 178 176 158 135 135 130 118 107 100 103 113 125 137 140 161 166 173 177 191 199 193
106 158 233 295 291 275 319 337 361 363 340 309 289 269 248 239 222 201 189 184 183 181 176 157 143 141 125 112 97 97 102 118 128 132 146 157 158 142 139 159 174 197 199
114 109 160 213 255 294 309 315 333 318 277 275 261 245 235 221 206 200 193 189 183 179 160 150 141 132 117 98 90 98 111 123 132 140 145 145 119 96 153 186 193 168 157
88 84 113 182 220 251 266 285 278 255 236 236 234 219 217 211 204 197 190 188 183 169 155 144 140 128 101 76 87 103 125 139 141 135 133 154 118 151 123 112 83 76 102
67 37 97 157 188 197 227 233 216 209 219 221 208 207 207 212 201 189 189 187 174 152 146 143 118 103 90 79 90 93 145 147 140 126 143 168 181 141 155 101 66 72 63
46 78 135 173 190 215 222 225 196 193 209 213 210 206 207 204 194 196 186 170 154 152 133 109 105 103 95 90 91 99 147 140 127 149 160 175 152 132 88 100 124 99 102
71 101 124 171 184 194 198 224 218 221 221 209 196 183 185 191 187 184 173 155 151 129 113 104 97 95 90 91 108 110 128 129 145 168 140 134 121 66 21 97 103 102 106
139 155 155 178 206 185 218 238 217 218 195 173 183 186 190 184 178 160 157 132 115 121 110 95 91 79 106 101 84 90 127 152 164 144 140 93 85 22 40 81 96 98 101
160 172 162 166 181 202 234 245 209 181 179 204 214 213 189 177 161 149 123 132 128 110 101 92 102 114 105 102 85 95 142 155 163 154 135 121 39 30 34 39 84 90 66
163 177 222 215 198 206 245 228 209 190 223 234 216 195 180 164 144 153 135 120 109 99 97 108 115 112 106 77 93 107 127 121 157 124 119 110 38 30 39 48 31 16 23
177 173 223 246 221 204 212 246 199 232 228 218 196 175 168 161 152 137 118 102 97 97 104 112 113 114 101 117 90 103 99 93 95 118 69 49 46 44 53 29 19 17 82
185 190 239 248 249 240 261 241 212 204 204 199 182 170 165 151 128 107 97 96 100 109 110 111 114 117 117 125 137 136 120 91 91 87 105 75 58 47 35 57 59 77 81
187 200 244 267 268 267 260 202 173 180 197 186 175 159 132 120 109 95 87 100 93 92 99 105 115 126 131 120 105 116 106 113 93 84 113 85 69 64 68 67 79 92 107
172 241 251 274 250 242 211 179 161 165 169 158 130 120 113 102 101 106 110 108 88 80 93 104 124 149 119 108 107 78 90 70 67 102 93 78 76 76 70 81 99 130 115

GFSMW_con_3kmhel_033.txt.gz
Helicity
106 159 191 181 116 90 90 93 139 173 230 296 387 401 408 361 363 371 349 330 268 219 165 158 159 132 121 100 75 56 60 52 40 27 51 63 79 92 110 99 104 120 108
52 108 131 162 151 116 113 125 132 139 178 243 355 423 477 432 412 407 404 331 243 165 161 175 162 127 97 106 102 58 23 22 30 5 -16 32 39 98 69 70 123 104 130
86 87 90 124 155 110 114 139 126 136 212 332 492 532 526 468 439 390 378 326 275 206 189 175 148 120 99 90 74 67 48 30 20 38 13 7 40 71 78 110 112 136 93
96 90 93 119 117 123 150 144 131 179 224 285 377 432 447 397 351 365 343 298 247 211 181 163 143 124 99 85 73 55 43 15 35 21 43 46 56 41 35 51 102 82 74
83 89 92 117 113 153 145 164 161 169 200 255 314 406 438 392 425 403 369 293 256 205 177 157 138 122 101 93 71 59 55 42 30 38 46 68 80 98 89 92 97 75 38
98 93 83 116 144 190 173 168 164 177 207 253 311 362 459 410 417 326 290 224 225 211 182 159 142 119 103 88 79 71 70 59 63 62 59 60 64 77 88 103 92 86 34
73 86 94 121 144 188 195 190 169 187 206 235 290 330 359 363 328 266 280 243 235 196 166 149 126 112 97 90 82 85 89 89 86 83 86 81 82 94 100 107 102 118 86
79 58 57 132 142 199 216 196 185 205 209 242 298 328 353 324 294 273 239 234 204 179 151 140 124 107 100 101 96 101 103 96 93 86 84 86 92 106 107 111 101 83 104
63 81 79 95 162 187 192 208 239 243 243 250 325 323 302 283 277 264 250 231 208 178 150 134 119 112 114 110 115 111 111 103 102 97 99 100 104 117 120 136 150 148 145
77 116 82 92 138 197 234 254 248 276 272 281 297 317 298 292 286 273 246 220 199 173 151 135 129 125 118 121 114 120 116 109 110 106 104 108 114 119 137 158 174 195 198
83 108 113 156 193 267 314 311 308 330 334 329 349 377 349 314 288 266 228 207 189 165 151 139 132 124 125 117 128 126 110 108 103 107 117 117 130 145 158 175 190 203 206
55 75 144 198 207 263 302 303 340 357 340 361 395 393 373 325 289 249 213 185 185 165 150 135 131 124 123 131 131 114 102 100 110 118 131 132 151 146 149 165 168 185 176
80 122 151 132 179 273 286 328 357 349 367 384 410 384 335 293 257 222 197 185 171 158 144 135 128 126 136 129 97 81 94 106 114 127 127 128 136 134 145 158 168 157 154
102 152 138 165 195 268 319 333 356 356 368 368 361 324 270 247 223 205 192 171 153 145 140 132 126 133 118 88 84 94 102 111 115 119 124 125 129 138 145 140 109 123 152
101 144 131 176 218 275 304 316 339 332 326 341 318 268 249 236 218 199 180 168 162 152 132 121 126 117 92 92 100 98 102 107 117 123 117 126 130 114 118 152 157 147 154
134 121 115 148 191 222 251 289 300 305 300 309 280 232 224 210 199 188 177 171 157 138 126 122 121 109 99 90 88 91 107 127 129 119 121 131 123 118 79 109 93 114 126
118 62 59 66 121 167 213 243 256 277 287 265 214 205 202 203 193 178 169 156 140 121 115 122 109 104 95 77 84 100 131 133 119 120 123 127 119 96 132 95 71 78 56
60 28 45 91 130 176 211 246 244 237 241 221 202 191 199 200 182 168 151 135 118 120 113 107 102 101 81 84 97 99 124 124 122 121 107 99 106 108 92 114 133 93 72
40 30 53 101 134 157 191 240 224 219 209 190 180 182 182 175 155 149 134 120 121 111 112 95 94 86 88 97 94 108 120 127 124 101 83 101 100 77 62 120 102 80 76
77 98 104 134 163 156 193 222 195 185 182 178 184 171 156 145 134 128 130 111 109 112 102 91 82 82 94 84 90 99 135 117 111 91 97 82 98 70 68 91 88 91 56
75 86 102 117 140 160 191 199 178 192 190 200 183 161 140 144 132 121 112 108 111 106 96 93 100 85 91 97 99 113 126 117 114 125 118 114 68 51 48 38 77 68 50
114 115 152 154 137 145 194 208 225 186 187 175 169 159 143 128 121 121 111 113 102 99 96 90 97 104 101 103 114 101 90 92 139 127 112 99 49 45 33 52 32 13 20
122 127 194 204 169 154 200 255 171 170 178 179 157 148 141 126 113 118 106 97 94 87 89 93 97 102 110 114 85 73 78 87 115 119 74 62 54 40 54 32 14 15 46
144 161 221 239 229 215 225 204 155 157 173 168 138 117 123 127 113 101 93 88 81 85 93 100 103 104 97 93 83 89 104 89 113 94 109 78 61 52 43 40 42 56 53
174 201 242 252 246 235 219 162 153 158 153 131 127 134 123 110 100 91 77 78 75 77 90 98 96 85 86 90 88 119 120 127 121 104 113 91 67 55 47 47 58 61 64
181 255 256 273 235 224 189 141 113 121 134 141 121 106 98 93 88 85 89 92 102 106 106 97 107 114 94 92 112 100 115 94 97 108 99 72 60 52 46 59 77 98 89

GFSMW_con_3kmhel_036.txt.gz
Helicity
73 129 211 230 200 169 154 129 120 91 113 144 157 193 284 344 331 292 250 286 278 262 182 164 110 126 108 92 72 67 65 51 37 17 38 60 77 77 91 84 104 116 97
49 74 102 169 220 221 178 158 117 96 113 161 171 184 335 390 428 418 347 312 317 286 208 163 117 132 112 106 93 69 46 42 40 26 24 50 60 82 87 97 103 119 119
59 68 74 103 161 218 230 167 129 121 133 159 232 313 395 491 494 446 403 366 317 282 176 180 130 133 117 104 93 79 52 42 47 58 38 27 68 101 87 100 104 115 126
59 54 69 83 119 164 201 184 150 145 152 200 179 188 312 460 437 411 405 383 315 318 138 181 145 130 109 100 87 74 66 45 55 42 69 81 97 79 74 78 41 113 91
62 70 69 68 112 128 159 178 156 164 169 123 143 168 240 402 446 389 376 359 302 204 193 166 144 129 114 101 83 68 63 64 67 75 73 75 73 85 99 82 94 94 76
98 71 68 91 88 137 137 145 142 155 145 130 135 174 290 389 392 335 394 336 262 223 182 177 146 125 110 94 81 74 71 76 83 85 87 89 95 98 102 95 91 89 61
87 109 72 73 84 133 134 139 128 146 133 138 144 196 220 287 258 313 352 248 261 197 170 165 137 127 117 98 82 77 76 82 81 90 104 100 93 111 112 110 103 112 89
40 71 82 70 95 99 123 133 125 124 134 154 170 202 222 282 366 349 328 269 225 186 171 164 148 134 116 99 83 86 90 93 95 102 111 115 113 114 112 122 120 107 98
156 80 68 71 91 98 121 124 126 129 151 166 210 216 289 334 337 367 315 308 223 206 182 156 144 131 112 96 93 97 93 90 104 122 121 117 122 120 121 124 126 122 110
120 134 79 53 88 96 119 135 142 141 177 193 203 247 296 337 387 317 313 253 224 201 169 156 136 115 105 103 100 92 101 103 130 133 125 124 128 123 126 130 142 154 157
80 120 108 77 97 103 136 157 169 179 182 201 229 266 346 363 334 325 224 231 213 183 164 143 125 113 108 102 95 101 110 125 137 127 123 124 127 127 135 144 163 176 188
51 45 73 86 108 121 131 177 187 185 207 234 261 327 379 369 307 227 241 218 205 180 156 139 129 121 110 106 104 104 125 131 123 125 123 119 136 129 140 168 174 189 193
-26 -0 43 76 94 120 135 175 213 233 243 255 344 404 390 282 259 247 230 212 192 175 157 140 130 120 114 101 100 122 124 115 109 109 120 128 138 141 162 162 179 196 204
-24 -0 51 71 102 122 173 239 272 255 312 351 382 364 284 261 268 236 217 202 179 164 153 144 131 117 104 99 113 115 106 99 102 116 117 131 137 138 145 159 175 187 205
-25 15 53 87 129 168 187 252 295 315 330 390 379 330 292 279 262 236 207 189 171 164 148 131 118 111 101 112 115 98 92 96 110 114 120 125 132 120 137 191 188 189 183
44 48 73 85 105 151 223 304 302 312 333 382 313 291 281 272 241 210 185 170 162 146 127 123 118 103 105 121 94 93 102 109 113 113 117 123 131 150 145 156 139 114 133
53 41 57 113 139 161 218 272 288 278 306 301 260 268 257 238 206 178 166 152 141 127 123 112 102 107 104 104 95 97 101 115 117 113 121 145 167 162 170 130 72 76 70
71 85 104 123 136 166 216 255 248 265 236 212 232 225 211 196 171 155 146 139 130 120 108 106 105 98 100 97 96 94 93 111 108 123 130 150 170 153 120 102 123 124 93
82 43 42 72 99 129 167 203 194 198 208 206 200 182 159 153 142 139 134 127 107 106 108 97 94 101 97 107 94 93 95 110 129 136 126 138 102 83 60 117 123 104 84
41 15 20 36 76 101 128 164 180 182 181 169 163 153 146 138 137 127 112 110 115 104 94 96 89 95 81 96 81 80 121 133 161 134 111 90 101 86 63 104 102 102 69
24 30 35 61 77 93 126 193 175 175 162 161 164 158 146 138 119 111 113 103 103 105 105 91 85 84 94 89 97 113 123 147 153 121 113 114 91 57 60 56 78 80 60
13 26 91 91 82 104 158 161 168 149 161 159 156 141 122 112 107 107 105 116 114 101 91 80 85 94 99 110 110 116 127 131 138 123 111 94 53 52 42 61 55 37 31
30 28 93 118 93 88 111 179 149 156 150 138 129 117 111 110 111 118 116 103 91 81 82 87 91 96 113 119 131 121 104 90 108 114 78 41 55 50 57 51 33 32 60
71 76 113 142 144 124 165 182 122 117 124 123 115 109 117 120 118 109 97 80 80 82 81 83 90 93 107 131 139 125 110 92 116 101 98 76 64 50 48 48 48 60 61
109 108 144 171 171 159 173 134 111 99 116 116 115 121 118 115 104 88 81 80 86 78 80 90 101 114 117 130 114 115 118 123 110 95 91 84 65 59 52 52 56 63 68
133 166 182 205 178 160 146 114 95 97 115 126 121 115 102 89 87 86 79 83 73 73 88 108 124 122 107 113 118 107 89 87 72 88 82 67 61 51 50 52 56 68 65

GFSMW_con_3kmhel_042.txt.gz
Helicity
88 105 120 140 178 153 154 169 252 280 269 228 244 273 206 286 304 289 326 449 372 277 253 280 279 216 181 149 145 140 119 117 74 48 49 40 53 51 46 77 72 117 93
96 70 90 145 126 165 219 202 207 297 276 269 272 262 384 409 418 446 513 553 401 382 292 320 315 282 271 221 161 123 109 85 81 53 43 55 49 42 40 89 113 120 141
112 102 88 103 144 137 119 230 282 274 311 329 429 496 577 562 607 660 639 658 497 414 305 357 374 304 271 236 174 151 105 79 69 72 46 58 43 49 85 105 136 126 147
113 112 99 114 139 150 145 118 215 280 286 341 475 483 491 539 596 655 689 702 484 414 388 427 369 340 280 281 191 151 123 84 69 63 67 78 82 81 89 130 149 156 164
86 107 144 128 107 124 166 174 136 189 266 321 463 545 580 601 638 679 731 643 473 415 418 394 363 333 300 258 214 160 137 113 76 67 60 69 78 88 123 97 122 133 123
107 123 162 174 126 132 143 181 181 199 263 355 470 532 571 571 558 552 613 554 446 433 435 379 367 354 308 268 217 161 131 118 112 97 89 89 94 119 146 153 150 125 114
152 100 130 117 86 86 120 134 200 269 323 410 503 508 473 481 446 488 536 515 459 445 439 405 368 326 278 240 181 143 116 108 106 107 102 113 115 135 153 172 156 179 149
97 128 100 105 91 91 91 138 190 309 373 475 442 387 445 402 388 393 417 419 444 429 403 346 311 286 272 204 160 126 107 108 105 101 107 118 124 146 167 184 184 161 179
88 159 180 145 107 92 101 126 192 282 387 446 365 368 413 388 336 372 388 418 425 411 339 334 270 260 230 183 127 109 105 101 91 93 101 110 119 158 174 183 190 199 188
199 233 216 134 80 77 99 126 168 231 360 340 355 454 453 383 320 349 388 379 374 387 389 329 268 245 212 169 144 124 112 100 99 105 121 130 152 170 176 167 177 193 211
232 185 102 55 49 67 54 156 175 227 277 332 442 547 529 431 378 362 359 400 450 372 353 308 270 233 194 154 143 129 109 103 107 122 126 134 159 155 156 174 175 184 201
123 104 84 49 49 40 61 154 178 226 416 510 546 470 424 392 374 396 396 417 361 321 337 297 225 213 169 134 129 116 116 110 120 129 146 145 156 156 160 166 163 187 194
140 144 138 19 6 34 109 195 270 420 491 506 452 358 329 324 322 348 360 323 295 348 250 271 189 196 157 136 139 137 131 126 123 126 137 130 145 151 159 173 189 210 206
44 90 103 18 -2 113 188 336 427 465 449 373 299 283 282 284 330 356 344 360 400 333 238 240 217 181 134 125 122 126 119 127 135 132 117 126 134 142 160 179 181 191 212
61 92 71 -6 48 164 277 368 416 400 315 232 237 259 274 306 361 370 388 317 230 225 236 212 176 132 104 125 132 130 151 148 128 112 119 132 144 133 138 176 194 197 204
55 66 -12 22 126 240 326 389 356 289 207 227 287 330 372 396 411 417 344 344 309 155 158 147 138 125 121 145 141 146 135 114 110 118 117 134 126 139 161 164 156 171 183
20 60 41 169 269 298 297 315 327 289 265 284 320 364 411 418 375 347 302 148 141 192 195 141 117 124 127 136 136 128 108 100 104 110 114 131 149 154 169 152 134 135 111
12 29 126 188 187 180 201 237 302 315 301 321 380 401 389 377 336 324 210 135 141 149 136 134 129 123 113 127 123 111 110 106 100 105 118 139 146 158 160 185 206 178 144
79 147 128 121 148 170 205 248 306 300 318 358 401 393 272 322 246 146 108 107 137 139 133 118 120 130 133 99 110 121 105 102 112 129 142 154 168 154 132 192 176 138 111
72 58 93 108 146 149 131 223 292 350 323 323 340 341 273 122 50 95 136 128 120 107 109 122 98 86 91 99 98 86 96 114 131 129 141 119 145 133 126 137 132 115 91
84 92 128 155 171 203 190 216 206 233 148 112 66 37 51 89 123 126 112 96 111 108 93 92 86 91 79 74 81 92 115 109 120 139 137 146 110 83 69 52 84 58 56
26 51 4 32 31 65 68 90 53 -17 6 70 85 96 115 120 114 98 101 108 96 100 103 100 88 89 112 127 111 83 85 94 139 138 145 130 66 52 23 29 22 18 30
-2 -28 -10 -15 -39 -22 8 34 12 52 89 124 130 117 106 86 82 88 83 83 90 86 78 87 101 114 120 118 143 170 140 129 142 147 92 61 46 21 32 33 29 40 80
53 46 67 68 50 23 24 47 59 67 93 102 88 83 86 83 79 79 81 78 78 87 96 103 105 96 103 126 143 136 136 116 123 94 97 71 26 31 40 54 72 94 95
46 45 67 75 67 66 83 65 74 88 107 101 78 73 70 75 79 68 61 74 85 88 83 82 88 100 112 124 123 117 111 106 87 66 74 57 56 54 69 81 94 103 106
101 116 121 131 112 121 120 92 87 93 81 73 65 71 73 67 68 75 80 74 78 79 81 91 105 120 110 107 102 80 69 79 59 82 55 48 50 62 70 84 93 116 111

GFSMW_con_3kmhel_045.txt.gz
Helicity
27 75 82 95 126 149 132 153 209 247 327 382 325 240 253 281 277 300 277 301 339 319 325 283 290 274 268 210 202 211 186 185 133 112 91 79 70 52 44 51 73 67 76
36 17 33 55 90 116 126 149 144 209 291 301 336 340 350 376 314 312 363 396 459 433 379 342 315 288 296 250 212 212 205 172 145 109 98 100 89 55 37 57 64 80 102
91 82 79 71 60 79 104 115 163 126 251 425 565 625 644 531 477 407 477 497 538 500 433 380 360 329 317 261 228 203 205 179 161 128 105 107 71 67 68 77 83 110 121
121 145 129 134 104 91 94 102 102 132 147 249 385 517 537 506 468 522 587 632 547 569 522 468 427 377 343 291 268 233 208 183 135 127 113 106 93 78 86 98 119 149 181
46 27 50 50 100 147 142 136 106 119 152 202 302 402 536 598 598 636 663 669 618 563 492 450 425 373 354 320 306 282 235 188 154 118 98 100 103 113 119 97 111 144 133
52 73 65 73 75 87 105 126 135 123 134 204 317 450 576 656 685 665 660 653 620 567 557 501 448 411 369 307 264 289 270 208 163 115 102 92 90 96 119 115 113 103 91
169 176 152 136 132 152 150 124 100 116 128 170 352 485 540 606 607 597 618 602 624 582 556 536 480 416 352 315 309 279 262 203 148 117 109 105 106 119 131 138 118 131 124
76 68 101 127 166 179 155 96 69 144 129 265 396 471 563 642 603 566 549 550 542 521 514 528 451 405 372 306 257 267 248 195 141 122 106 103 117 130 138 141 140 131 150
112 127 210 195 158 145 118 69 102 105 168 319 523 541 572 526 470 476 471 457 458 469 492 460 436 370 317 293 239 256 226 159 103 94 103 119 125 145 159 169 174 167 156
112 143 151 218 206 172 88 84 64 110 214 395 457 553 523 471 439 414 384 388 413 418 483 464 413 326 309 235 248 235 189 136 107 98 102 105 116 136 151 164 181 190 191
125 205 208 201 169 118 72 59 47 136 300 446 458 471 455 389 384 335 330 343 392 428 451 405 381 355 249 272 213 183 141 121 105 96 94 103 124 139 163 174 171 175 195
129 162 115 148 184 110 57 63 103 322 413 421 430 422 432 379 347 294 290 369 412 405 395 364 324 315 314 326 170 155 102 97 103 95 102 104 132 142 145 157 159 177 184
80 93 130 142 103 52 50 116 278 389 364 442 464 421 406 330 302 327 330 366 410 421 450 386 376 275 322 129 159 144 119 112 87 99 90 113 130 135 151 157 162 177 184
54 42 28 33 80 62 102 215 315 363 400 466 436 374 344 289 312 333 349 360 390 438 362 307 265 343 193 139 157 128 120 146 134 133 147 129 123 123 125 135 150 163 178
36 9 83 46 72 83 158 266 340 358 419 375 352 325 264 268 310 346 362 415 440 376 349 297 296 90 115 121 136 152 161 140 142 148 137 136 127 123 140 180 180 192 200
-19 51 39 76 119 201 233 292 294 297 315 305 293 260 259 326 403 421 442 419 371 303 307 331 165 185 129 143 182 145 134 141 133 130 137 134 125 141 139 143 140 166 195
0 9 95 118 188 266 291 272 282 279 294 286 256 282 359 433 474 447 430 376 352 323 232 170 54 92 137 138 139 144 134 132 125 123 125 142 151 164 165 153 143 150 155
14 41 45 141 250 330 316 262 227 221 264 295 329 387 398 402 354 328 307 278 239 193 81 74 123 121 111 124 132 145 129 128 119 119 142 146 144 155 174 194 203 183 155
143 155 137 173 182 188 197 227 231 282 340 346 382 295 313 329 261 281 211 140 107 79 14 98 122 108 92 88 103 120 109 118 120 122 133 140 157 165 142 179 181 151 116
20 50 67 131 131 161 252 285 282 256 259 243 210 209 159 127 152 85 75 65 56 86 76 72 90 73 89 90 89 85 99 101 103 113 134 127 148 123 105 143 135 91 72
89 102 129 152 122 94 122 128 125 63 95 63 113 123 67 80 46 26 5 78 78 68 87 97 107 110 88 82 85 74 80 80 101 104 123 132 106 96 101 87 76 64 62
25 56 73 79 61 45 53 11 75 10 73 70 58 39 12 -15 3 75 58 60 79 97 108 114 122 127 125 125 115 149 157 142 134 125 131 131 95 97 58 52 40 36 56
-50 -48 -27 -21 -52 -58 -32 0 -32 3 1 -19 28 46 63 77 57 60 68 89 103 106 106 106 106 98 100 110 139 140 147 143 140 135 106 125 100 62 55 37 34 44 79
-6 -11 -12 -29 -66 -61 -35 -36 -46 8 35 28 45 71 76 67 71 82 88 87 87 92 89 87 86 88 96 106 124 125 134 118 126 102 120 117 82 43 31 40 62 94 98
-15 -12 -6 -8 -15 -7 -7 -1 24 36 61 77 68 66 75 81 79 73 69 77 57 59 59 66 73 85 112 122 132 124 119 119 111 111 95 77 52 54 51 62 80 96 107
41 31 35 42 13 29 30 22 29 64 96 85 70 64 66 68 69 67 68 73 78 81 73 82 92 101 113 129 125 100 103 136 113 105 77 53 44 40 46 54 77 107 100

GFSMW_con_3kmhel_048.txt.gz
Helicity
-30 30 112 135 140 108 101 141 183 171 315 367 346 363 288 266 266 239 219 233 254 250 269 280 321 302 282 244 244 238 201 189 164 181 164 136 112 88 72 67 67 66 72
11 31 65 78 117 122 151 133 154 168 216 301 344 375 426 374 317 291 260 268 312 294 295 322 343 325 318 273 250 235 218 193 175 175 170 139 120 108 99 89 78 75 97
31 11 34 39 65 85 89 113 135 133 149 207 367 512 539 531 495 379 315 284 390 411 362 354 386 375 351 306 244 239 223 214 195 179 163 160 117 118 114 121 119 125 136
119 127 118 78 69 81 102 87 101 125 132 204 365 327 370 418 412 379 428 412 413 466 399 367 428 435 398 348 286 246 219 233 214 217 189 180 151 129 116 114 123 151 156
47 50 83 112 128 133 133 126 114 106 150 202 237 318 311 388 543 579 548 474 471 474 462 444 460 457 439 414 355 293 249 214 232 229 218 192 176 155 145 127 129 148 148
36 27 46 45 42 50 72 108 128 150 101 135 212 269 367 448 522 524 552 508 515 498 466 458 488 516 487 476 393 303 278 225 271 215 235 187 144 126 133 136 132 136 137
90 41 30 108 151 147 131 93 82 104 141 123 124 214 351 428 461 491 531 564 561 532 497 463 516 528 526 472 401 355 329 261 283 225 242 193 165 146 146 148 132 140 125
141 60 72 100 121 133 152 157 130 97 76 100 134 205 299 417 471 510 554 525 572 599 548 501 499 506 457 456 413 400 362 336 226 227 251 163 149 137 128 126 140 137 154
217 185 145 108 103 115 132 127 116 73 57 86 142 273 319 396 486 558 571 604 585 530 514 473 444 432 452 472 424 361 370 205 279 205 243 189 124 116 120 134 144 135 132
17 75 106 122 110 96 118 117 81 54 29 73 231 296 373 432 472 539 495 483 455 442 448 422 420 476 446 442 444 360 406 243 204 199 198 132 107 114 126 133 141 162 171
-0 12 46 136 136 170 208 124 65 43 95 199 270 329 406 455 422 418 411 389 364 384 411 410 457 432 457 374 345 388 328 174 205 173 166 90 92 109 120 134 150 169 201
68 70 117 173 191 170 120 65 57 26 136 242 302 331 357 366 357 325 297 328 382 352 379 444 460 463 428 409 377 382 246 204 201 182 155 75 57 101 114 136 149 173 187
68 60 89 141 103 112 93 48 71 120 215 298 344 323 286 293 305 285 319 337 334 360 417 494 512 465 481 504 347 255 216 157 136 131 119 130 123 118 149 166 162 170 177
76 85 72 60 108 82 89 102 129 177 243 305 318 298 262 265 251 255 260 273 349 429 490 457 417 395 421 260 240 286 259 223 172 135 135 131 132 144 152 146 143 158 179
54 30 69 54 51 120 148 132 112 167 234 279 325 332 333 307 317 328 350 410 447 480 461 416 397 369 347 211 241 293 156 140 105 131 149 160 157 130 128 158 162 173 193
32 23 73 74 81 95 83 80 91 159 191 250 273 304 333 318 290 363 394 425 455 433 405 371 364 244 218 185 155 100 75 122 156 155 162 163 163 179 186 170 152 179 218
40 53 83 104 110 108 148 189 174 225 204 246 312 328 325 336 377 394 407 417 385 359 348 318 218 211 173 129 108 123 123 132 136 140 152 160 170 169 161 169 185 207 191
47 76 87 95 128 151 166 151 162 173 223 256 245 277 307 311 288 353 364 386 246 266 222 145 81 53 47 52 80 98 119 127 121 116 126 129 128 154 184 206 221 200 175
41 84 91 103 140 160 163 177 153 136 126 123 127 153 177 244 210 284 268 187 174 146 113 91 82 52 41 63 80 89 100 114 109 114 122 141 170 167 148 193 208 168 131
18 24 48 76 63 47 79 89 8 13 39 86 115 104 142 163 152 114 122 84 32 14 28 38 51 67 72 61 84 89 90 93 102 129 154 152 153 141 137 180 160 127 90
20 36 44 55 29 19 33 100 90 153 91 136 129 139 90 93 80 60 25 23 38 44 63 91 105 118 110 101 103 113 126 123 119 117 127 149 152 136 138 112 119 84 64
22 52 64 53 80 85 111 106 115 56 63 51 39 46 40 41 13 -4 15 26 42 68 82 103 117 127 136 153 163 166 167 159 149 136 144 141 109 123 101 93 47 38 53
-26 -31 -21 -38 -25 -23 -10 -5 -33 -21 5 16 19 3 -20 -24 -6 25 36 55 66 77 87 95 102 109 123 142 168 171 169 158 157 148 119 160 129 100 89 44 44 43 59
-15 -31 -39 -41 -34 -41 -34 -28 -29 -18 -18 -10 -10 9 26 27 30 36 41 56 66 71 77 92 111 129 149 160 167 164 164 144 145 129 153 128 103 80 50 48 50 62 71
-16 -7 -19 -35 -38 -33 -39 -45 -40 -20 19 19 12 32 40 39 50 57 54 58 61 74 95 111 125 143 166 178 183 174 164 146 132 138 94 92 89 67 50 46 48 62 75
17 3 -5 1 -18 -2 4 -12 -6 39 53 47 38 32 40 46 53 63 77 91 98 101 110 125 148 155 150 190 181 161 151 159 111 102 81 85 54 34 26 15 49 77 76

GFSMW_con_3kmhel_051.txt.gz
Helicity
8 21 55 74 74 124 190 183 198 186 266 330 350 294 268 254 238 219 184 191 211 216 197 177 219 252 285 260 260 249 195 195 177 181 161 151 138 124 107 93 90 88 89
54 48 62 66 85 112 154 183 177 155 192 268 298 345 347 283 251 269 242 244 244 264 249 219 242 292 332 311 303 271 247 213 191 180 173 148 147 151 145 126 109 111 116
54 68 61 60 67 95 103 149 200 178 156 185 267 408 432 446 417 349 261 242 279 307 265 238 272 318 334 333 307 291 276 256 227 181 186 180 139 153 153 152 150 146 148
98 112 122 129 122 102 117 112 125 146 162 164 306 320 378 399 395 341 285 301 339 355 346 289 288 363 375 381 363 304 322 291 252 243 208 213 191 163 162 169 159 166 167
142 154 117 105 110 103 126 130 119 112 116 139 186 250 299 348 351 388 356 426 422 395 402 387 353 369 393 392 394 361 341 315 288 289 260 237 243 209 240 171 165 166 156
179 185 122 81 75 48 57 75 107 116 121 148 155 188 209 321 397 408 416 389 431 402 406 440 386 363 388 401 409 378 332 324 314 288 268 238 241 220 237 244 183 160 160
220 203 170 123 110 97 75 78 87 78 81 100 147 173 185 254 299 359 376 404 431 448 415 455 489 435 405 424 435 392 340 343 338 327 290 247 231 209 212 229 199 168 151
111 100 127 120 91 98 107 93 89 69 64 58 51 83 153 214 259 330 382 362 363 408 490 490 529 512 463 433 418 404 388 410 380 396 419 373 254 218 214 252 190 176 159
34 59 33 83 123 139 124 137 124 100 80 68 58 54 117 188 215 271 374 403 450 520 508 541 496 446 475 400 401 436 438 458 390 346 307 254 242 176 183 190 164 165 174
-28 -19 -20 9 47 122 149 162 119 90 64 43 28 54 119 190 254 326 411 443 455 492 505 505 454 433 424 403 430 467 458 470 475 379 346 280 278 156 176 139 145 136 136
-41 11 62 121 123 145 213 268 212 124 89 86 79 126 185 239 274 309 375 404 420 402 399 398 372 393 413 430 466 465 445 461 429 417 235 331 260 204 153 150 129 120 149
49 76 43 16 91 134 190 211 211 172 94 69 92 135 166 212 255 291 312 305 349 321 314 346 386 429 497 476 453 462 421 414 308 267 331 279 184 162 147 127 129 136 157
39 50 49 75 86 61 79 94 137 107 47 33 64 111 155 181 191 231 264 286 312 312 309 379 463 540 531 547 528 470 484 382 406 432 228 213 183 108 105 111 120 150 154
-20 8 7 44 36 87 87 85 83 64 31 43 84 126 148 162 175 194 195 201 253 324 384 439 492 518 501 455 435 371 346 337 266 218 173 129 110 98 111 137 131 141 151
-1 2 34 51 66 73 85 90 105 93 52 72 106 148 162 188 221 265 279 308 356 414 460 550 537 484 442 405 331 341 293 222 147 94 106 98 104 119 123 136 137 151 163
-2 28 23 39 50 64 75 92 77 85 86 120 215 243 257 298 333 352 372 374 386 437 474 465 446 406 310 290 235 178 152 108 91 108 122 134 162 157 164 168 170 174 187
-2 11 6 10 21 63 67 80 104 107 173 246 236 235 309 346 333 325 320 370 378 378 356 323 302 290 230 121 107 102 60 72 77 98 114 132 148 164 148 144 154 160 127
6 -4 9 21 30 44 63 91 60 46 22 54 59 131 117 169 199 220 265 227 209 259 223 201 186 152 103 44 54 65 80 95 113 115 128 123 116 120 121 128 146 161 159
10 1 -4 16 31 46 28 31 30 51 56 62 93 68 109 97 17 139 119 207 119 151 129 135 49 26 36 55 60 103 103 103 110 102 101 103 112 97 80 130 171 160 150
34 31 15 22 21 17 17 66 73 94 94 98 95 92 90 106 128 118 127 132 106 61 37 28 30 39 45 49 78 89 102 100 100 112 111 104 116 117 119 158 160 143 115
45 43 57 58 61 21 29 50 40 46 55 42 51 68 66 124 97 74 53 44 34 32 44 64 88 104 110 117 132 156 109 107 116 117 127 137 125 113 137 140 145 108 77
15 30 41 39 29 18 25 36 29 10 4 -1 14 15 23 11 19 19 -0 13 26 43 51 73 92 94 109 133 154 171 172 160 151 146 146 138 117 140 128 118 79 50 55
-12 -18 -27 -29 -18 1 -6 8 -16 -20 -14 -0 -4 -3 5 -10 -15 1 11 31 41 51 59 71 81 88 102 123 150 165 186 192 190 161 150 165 135 118 112 79 50 35 39
-16 -11 -27 -26 -22 -36 -25 -18 -15 -9 -9 -6 -6 -3 9 14 15 24 26 40 47 56 63 70 77 84 110 147 161 169 189 191 186 173 152 130 119 99 70 44 32 36 43
-9 -26 -19 -30 -17 -7 -11 -22 -21 -10 11 8 5 15 15 20 34 39 34 38 27 37 45 64 102 131 160 179 204 209 192 169 141 145 99 85 76 60 33 30 18 48 62
10 -3 -9 -10 -25 -11 -8 -12 -5 21 37 31 15 13 21 25 31 35 46 70 90 112 122 132 143 158 170 178 177 164 125 114 77 91 63 52 35 20 11 -0 7 47 58

GFSMW_con_3kmhel_054.txt.gz
Helicity
41 49 74 98 123 159 180 213 236 236 246 262 242 233 182 201 222 248 203 207 198 187 172 158 152 194 218 208 211 262 244 226 210 208 164 145 137 125 121 124 126 124 114
21 34 60 98 119 120 142 151 175 199 230 272 266 299 236 202 230 248 227 221 256 235 201 204 205 206 229 249 278 314 303 245 201 191 185 143 138 149 154 149 134 132 146
76 96 116 125 108 95 128 163 157 128 147 231 290 398 363 341 256 290 250 254 291 272 250 229 250 254 257 247 285 335 339 299 213 206 188 175 135 169 181 169 158 153 166
155 147 163 177 165 155 134 137 156 171 167 171 251 263 270 294 304 291 282 298 325 306 301 286 284 307 319 293 321 370 362 302 258 197 210 239 213 181 170 176 177 186 187
178 190 180 149 149 132 110 123 123 185 176 170 200 216 213 242 275 257 276 297 303 325 328 302 305 326 349 341 342 371 349 325 294 306 297 300 279 256 252 218 211 197 193
174 179 155 137 144 113 112 117 120 91 111 140 150 156 172 213 257 282 296 331 334 347 345 341 344 354 354 376 359 365 354 330 296 330 304 305 292 296 281 293 236 240 186
97 94 134 164 173 164 149 131 141 139 107 78 91 116 138 175 209 238 256 278 292 321 323 354 345 348 353 389 414 386 358 328 312 329 337 348 327 305 300 343 269 295 248
26 28 42 44 86 102 101 117 127 136 134 117 93 74 70 125 150 192 227 271 267 275 301 359 386 431 504 429 391 388 385 348 342 349 357 394 389 291 357 353 238 310 265
-14 -16 -20 -29 21 78 115 102 132 144 171 145 102 79 74 73 102 141 200 217 269 287 309 366 460 457 444 409 376 390 413 405 396 401 413 436 414 406 235 283 282 249 247
-56 -22 -40 -15 44 87 123 140 188 210 225 175 117 81 54 59 85 131 173 226 268 303 313 371 419 436 429 406 433 445 427 459 458 446 480 469 440 415 458 384 292 277 259
12 -12 38 27 16 36 128 167 216 234 257 248 181 117 93 89 124 163 187 221 256 253 262 277 313 353 390 393 395 443 466 507 482 476 458 460 416 458 479 540 413 303 160
-14 -10 10 2 12 85 116 140 130 125 130 138 134 102 79 82 122 149 147 172 188 195 191 221 305 358 401 391 409 461 480 474 491 479 509 421 444 386 320 318 169 125 133
-6 17 42 35 58 92 88 78 72 67 61 91 81 61 62 57 100 114 115 136 174 207 232 284 350 387 414 465 491 528 533 546 445 422 346 366 342 229 130 119 90 103 110
11 6 8 53 71 53 37 25 36 63 68 90 105 110 63 104 137 164 178 197 224 263 307 357 395 446 488 515 530 528 466 404 347 284 307 262 180 144 92 81 102 118 137
-20 16 25 59 58 53 25 18 14 27 34 65 106 121 147 177 208 255 244 257 293 305 336 390 442 465 452 395 370 356 297 239 260 241 178 136 95 92 79 102 124 149 152
-1 -20 26 51 56 62 36 26 45 40 65 102 142 161 172 197 225 238 256 262 267 285 379 383 400 353 330 256 222 198 185 184 182 138 47 74 105 145 160 136 114 105 133
-20 -24 -6 27 14 17 25 51 59 29 57 75 51 71 111 160 161 163 148 184 245 266 194 250 242 263 216 179 202 213 169 115 70 84 103 117 130 137 124 115 125 135 137
15 15 12 14 20 18 38 38 53 41 32 60 33 55 77 118 119 143 158 165 181 236 229 199 204 170 166 144 115 80 44 63 93 103 103 110 121 123 126 135 149 139 126
38 32 30 26 12 22 21 28 28 29 42 80 86 86 108 105 135 132 141 159 175 201 196 195 162 108 51 40 52 62 88 102 109 118 118 107 121 121 120 136 136 117 117
52 58 51 42 48 14 4 56 39 37 25 51 44 29 81 82 114 119 96 65 64 92 67 69 39 14 8 22 90 101 91 98 98 105 108 107 109 105 117 174 155 137 119
39 54 46 55 41 24 18 50 41 36 12 10 19 38 43 40 6 5 -6 5 22 19 37 67 69 96 90 91 100 88 87 104 123 127 139 139 134 153 159 132 130 98 74
9 18 12 31 13 4 25 24 -3 -0 -5 -4 -7 -8 -18 -19 -20 -7 -16 -7 15 32 29 40 56 55 63 93 118 134 134 146 146 164 164 149 139 127 112 104 72 55 57
3 -10 -23 -7 -2 1 -14 -4 -27 -35 -21 -11 -8 -5 -12 -16 -15 1 9 21 25 28 27 32 42 53 66 86 131 169 186 172 185 143 136 129 103 82 70 43 35 31 26
17 3 -23 -23 -11 -11 -20 -16 -18 -12 -5 -0 -1 -2 8 15 15 15 11 14 13 16 23 39 53 66 91 112 124 138 154 147 136 143 108 65 45 36 31 19 8 21 22
21 6 1 2 3 -5 -6 -15 -9 5 15 13 7 9 13 17 22 20 10 12 14 25 32 39 57 74 94 126 155 148 123 101 75 91 54 40 26 3 2 13 30 35 40
31 27 20 7 -10 -0 1 -16 -7 10 25 26 18 17 21 23 25 29 33 41 32 55 77 87 86 93 120 140 135 114 83 61 38 42 19 7 -0 1 14 25 39 55 52

GFSMW_con_3kmhel_060.txt.gz
Helicity
100 112 115 125 131 142 137 145 171 163 149 170 195 176 189 159 165 139 114 104 89 90 110 111 124 106 115 125 127 113 131 158 177 183 159 140 123 112 114 121 116 128 126
73 109 128 139 141 141 159 163 166 173 193 208 224 198 179 171 154 143 129 131 109 94 110 122 135 135 139 133 140 142 193 171 202 203 178 177 144 129 126 132 136 135 145
156 161 173 189 189 169 152 162 187 195 196 194 207 233 257 269 244 199 157 131 145 149 138 131 133 170 161 191 212 194 191 241 212 213 209 247 204 192 156 134 147 156 172
199 201 210 211 213 207 186 157 169 167 163 159 183 178 192 193 189 178 159 164 141 166 171 160 135 179 228 211 257 287 262 258 280 280 221 290 308 206 203 179 147 162 169
213 209 206 199 189 173 155 141 122 114 128 153 183 195 167 146 131 131 117 106 112 104 157 153 148 200 224 220 248 280 301 320 297 316 346 272 270 271 258 220 194 183 198
176 166 152 149 160 151 136 118 123 123 123 99 102 153 162 140 138 129 129 113 121 124 115 147 166 211 254 222 240 252 280 335 293 293 302 330 334 290 298 231 262 206 218
109 117 118 125 133 138 134 123 129 136 144 148 144 129 127 149 160 153 162 153 165 158 151 130 150 158 212 230 238 248 256 303 316 319 341 332 354 336 332 343 275 274 326
42 43 54 72 92 114 132 147 141 145 164 177 169 148 146 149 144 130 137 144 131 121 116 129 145 175 172 197 221 239 244 250 307 351 359 330 342 312 296 300 284 347 376
43 41 44 51 62 78 95 116 140 152 173 196 200 210 199 185 171 169 164 156 130 125 111 114 123 136 174 208 229 260 257 239 265 333 325 377 358 361 334 342 377 368 364
15 15 26 54 77 85 92 106 126 154 186 219 228 212 203 207 213 216 213 202 180 170 129 108 113 138 174 193 217 210 234 269 377 431 543 576 419 372 389 448 434 439 398
-7 9 28 55 86 98 118 138 160 166 157 150 146 143 141 154 179 191 184 168 156 134 122 100 91 108 152 168 199 252 281 313 334 371 373 484 538 310 588 376 365 365 308
-13 20 41 52 67 89 115 106 88 86 94 89 76 81 106 145 166 185 188 169 158 151 143 135 129 121 136 196 235 248 267 317 383 408 429 444 457 438 360 358 247 260 251
-13 17 27 50 75 88 83 75 70 67 64 67 80 103 126 124 151 148 126 118 103 125 147 143 144 149 176 220 256 296 347 389 387 380 370 338 320 282 212 217 270 259 262
-26 21 39 64 58 58 60 68 70 48 24 12 48 75 74 82 82 85 117 162 164 175 197 193 189 206 220 250 288 310 337 374 375 338 328 273 232 199 223 277 251 207 186
7 33 42 27 22 30 31 27 36 36 14 10 48 66 64 61 80 104 140 180 176 178 183 231 254 257 284 285 293 330 310 285 289 306 244 229 218 217 182 173 149 133 134
34 48 40 36 28 40 41 35 33 33 27 18 17 47 65 73 96 117 140 181 150 109 173 282 184 224 262 239 238 263 258 251 232 226 199 178 185 157 145 107 65 83 116
36 52 46 55 55 57 55 30 20 26 21 44 50 57 57 73 88 114 160 158 201 208 166 211 178 188 197 150 143 221 221 183 151 132 120 106 101 112 122 128 106 115 141
42 39 46 63 68 49 47 36 42 44 40 56 69 68 41 72 79 91 171 111 139 137 143 174 162 176 132 109 125 112 78 77 75 65 76 97 112 105 102 108 112 132 152
31 41 39 67 54 52 36 41 40 30 43 46 60 33 35 46 53 42 92 110 115 132 134 110 68 81 80 79 37 34 33 32 38 52 79 84 86 124 109 133 152 150 152
25 49 64 44 43 37 28 28 34 59 74 60 46 45 56 69 48 51 60 35 38 27 4 24 6 8 3 9 17 41 37 47 57 75 95 123 145 149 160 117 122 130 102
26 24 38 38 31 27 29 45 53 64 41 18 11 8 1 -3 -7 0 -4 0 6 7 2 2 10 26 27 34 48 62 67 83 95 110 117 116 111 120 123 107 80 53 6
33 11 13 18 15 17 18 15 30 0 -6 -10 3 3 1 -9 -11 -1 -1 9 12 11 6 7 14 27 46 57 56 67 74 72 80 96 103 111 113 100 85 61 36 -6 -24
25 29 24 18 -4 -6 -8 16 0 7 5 8 11 7 8 7 1 10 12 7 0 1 6 13 23 36 45 58 73 87 95 103 100 99 109 94 92 81 57 39 7 -13 4
24 34 42 34 21 4 14 14 8 15 15 25 23 15 23 25 13 8 7 11 14 20 28 37 46 53 63 67 69 68 70 74 68 80 83 89 78 58 45 25 15 12 17
34 23 38 48 39 27 32 22 18 23 31 30 28 31 29 30 32 32 26 27 31 31 33 36 37 41 48 58 59 53 55 73 89 94 102 104 93 71 49 37 29 27 25
116 28 27 59 52 37 39 34 28 30 37 36 33 26 27 27 30 33 37 47 57 55 56 42 30 41 41 54 58 51 60 70 80 94 115 119 99 82 68 47 37 31 31

GFSMW_con_3kmhel_066.txt.gz
Helicity
70 110 193 187 196 221 213 204 207 193 165 165 202 277 232 191 187 162 53 121 172 206 222 222 214 212 214 213 273 238 187 197 261 266 244 280 223 203 188 192 216 231 231
176 191 157 115 126 150 179 172 165 171 160 171 153 191 239 250 216 176 138 106 167 214 209 254 239 227 245 254 302 290 296 247 276 360 326 288 267 209 208 216 221 245 277
173 177 110 117 163 218 208 181 183 191 210 250 230 208 241 274 253 194 140 116 133 158 228 216 227 222 216 233 254 321 335 278 336 341 388 274 271 249 221 228 257 281 326
167 184 171 126 109 138 168 192 166 150 135 162 195 208 210 272 208 174 116 99 95 79 106 173 267 247 213 205 233 233 324 331 357 413 326 315 286 260 253 229 227 251 313
133 130 140 120 114 139 161 178 184 156 152 141 122 112 125 137 166 196 172 153 129 133 155 123 122 161 219 213 218 241 240 315 356 427 483 317 284 327 317 289 286 288 306
163 141 134 142 131 132 144 149 160 133 122 112 110 99 88 80 102 143 153 141 140 136 138 177 160 141 120 139 199 226 279 287 290 412 438 412 369 350 422 361 333 317 337
163 164 155 150 122 116 119 127 128 131 119 128 130 120 107 111 109 108 149 199 154 118 105 130 158 183 156 144 146 151 168 243 297 310 415 373 358 360 350 468 475 477 522
139 136 125 116 112 105 100 109 120 137 136 142 160 184 206 196 198 211 210 192 184 196 191 184 149 138 127 133 137 145 161 205 241 244 299 327 384 405 414 409 455 437 499
111 104 100 96 92 80 81 98 130 167 178 167 184 190 180 199 208 230 238 234 236 243 263 269 239 221 160 113 120 141 148 196 206 243 294 365 407 434 434 426 434 427 381
115 99 79 68 58 60 75 110 141 169 184 190 201 197 213 215 205 208 234 233 214 224 216 218 240 232 248 263 201 182 181 193 276 303 340 373 389 406 395 385 378 401 404
95 66 58 43 50 71 100 131 162 163 175 182 180 185 195 185 179 172 175 173 191 201 215 226 236 240 221 217 211 222 213 230 266 284 284 311 302 303 300 280 266 283 274
66 54 37 40 74 92 113 126 141 139 141 130 108 101 120 133 139 119 117 138 161 163 146 154 180 202 210 205 199 202 198 201 214 230 201 196 210 222 186 207 184 166 152
22 15 4 44 92 111 105 102 110 113 100 87 76 77 88 102 110 90 98 107 119 132 133 142 164 182 172 185 191 191 220 228 226 174 158 138 174 189 195 191 200 197 192
37 42 26 48 79 82 84 84 82 82 87 82 68 61 69 73 83 82 114 121 116 134 125 110 134 119 132 157 158 154 203 227 245 239 316 230 205 180 160 185 142 78 137
76 75 67 89 90 81 77 64 48 51 59 72 67 58 65 93 97 120 118 88 99 67 54 82 143 78 145 186 166 187 203 237 263 275 243 206 168 133 153 137 123 111 102
63 70 83 84 85 83 64 65 68 74 70 66 60 56 60 71 105 75 55 77 33 75 87 139 118 109 76 154 164 154 162 199 185 181 188 203 149 201 162 136 135 154 102
69 55 83 99 97 76 74 97 92 94 87 79 65 68 62 72 66 54 50 66 79 99 105 110 71 81 71 113 133 121 117 138 133 137 115 103 115 103 84 70 61 54 80
79 90 93 93 74 75 92 96 86 83 79 75 68 56 44 58 39 44 73 101 76 77 61 57 43 35 31 54 61 64 36 43 53 58 44 38 21 27 65 97 103 105 109
68 81 128 126 105 92 90 90 79 72 79 85 69 49 45 57 35 55 57 30 12 1 -5 -14 -27 -5 2 29 34 29 18 21 29 48 62 75 83 88 107 122 115 126 150
79 95 103 117 100 76 84 90 88 72 78 66 67 51 34 16 28 26 17 4 -4 -25 -11 -11 -19 28 18 48 60 66 68 73 75 86 95 115 116 131 138 140 144 137 124
70 96 85 54 62 93 105 82 58 62 44 35 31 27 24 30 14 -2 -21 -22 -13 -2 7 17 23 35 37 38 63 74 70 78 85 94 93 92 107 99 95 102 110 105 100
67 68 73 71 71 62 59 66 53 21 8 13 11 4 10 9 -9 -1 -6 1 15 16 14 24 26 34 42 51 43 55 60 73 71 79 86 84 72 79 86 104 109 107 113
41 61 105 88 33 37 36 31 12 -8 4 11 8 9 19 16 10 20 19 19 29 38 36 46 46 35 34 34 35 31 48 52 59 67 61 64 70 82 93 99 95 105 105
66 99 105 66 40 35 41 27 16 -2 13 15 19 27 35 33 32 30 31 37 43 41 50 47 49 40 41 61 57 52 54 82 80 67 54 53 66 69 74 85 89 94 87
79 101 83 69 46 47 56 39 20 10 27 40 35 41 37 40 60 67 52 49 44 50 59 57 54 55 62 52 56 49 49 51 48 55 66 77 91 100 101 99 92 90 88
112 112 97 82 50 48 48 34 42 35 65 62 54 45 44 41 51 61 65 76 60 59 65 63 55 48 49 56 56 51 47 46 49 72 75 87 100 112 114 110 101 92 89

GFSMW_con_3kmhel_069.txt.gz
Helicity
104 152 167 186 205 233 262 246 231 248 200 182 173 153 129 125 115 117 110 163 173 169 172 231 222 235 240 231 205 209 200 205 235 294 278 259 202 208 230 237 271 257 239
154 183 202 232 221 185 200 216 223 226 241 239 222 222 223 189 183 166 143 134 154 156 218 201 230 265 271 273 265 279 280 255 301 324 311 282 290 238 240 258 248 265 306
143 175 190 166 160 158 167 181 186 186 187 216 239 245 221 237 233 231 191 133 117 131 165 192 210 206 282 255 282 316 312 256 332 347 388 315 309 263 265 255 287 294 328
147 141 128 106 71 99 148 188 207 169 150 145 162 180 193 199 158 153 160 143 101 72 93 131 150 171 228 248 233 267 283 338 274 306 288 415 326 247 238 224 223 263 267
115 128 96 80 112 140 163 189 210 199 200 193 161 130 130 134 158 154 150 123 100 93 88 91 110 137 174 205 190 187 244 282 278 347 357 324 413 425 333 244 252 276 312
124 123 153 140 142 161 180 188 196 190 182 174 187 183 158 137 126 130 125 160 170 154 98 75 105 108 123 144 146 144 152 187 221 256 323 385 355 311 421 399 353 339 421
167 149 161 162 146 150 149 146 167 172 149 150 164 161 160 153 153 158 159 183 202 228 284 200 131 111 116 127 135 131 135 139 182 204 269 314 354 384 385 327 351 376 441
148 141 141 138 126 110 104 115 131 148 132 131 140 134 145 138 142 151 160 181 204 207 224 258 256 205 167 133 107 113 129 143 155 148 187 226 248 348 412 429 370 365 359
135 133 129 112 97 88 90 88 109 127 130 135 142 160 172 178 177 189 177 176 187 188 197 209 223 223 213 223 217 151 123 126 132 144 159 246 325 354 361 353 341 262 289
132 122 100 83 75 73 80 105 108 120 154 180 178 169 177 188 187 188 214 213 204 200 188 190 192 196 199 215 231 218 212 198 182 173 190 225 238 261 279 270 271 284 284
125 104 88 66 63 71 86 107 123 146 172 156 151 154 152 147 138 134 138 142 140 151 160 167 175 181 171 177 188 209 219 211 208 200 190 202 200 197 178 179 163 187 202
96 74 57 57 65 74 93 114 131 148 141 123 124 125 115 113 117 117 112 109 110 114 123 135 140 143 153 169 180 181 204 217 214 186 191 182 174 186 184 185 129 133 155
81 70 68 60 58 81 112 126 134 129 114 106 97 96 102 109 113 110 101 113 123 131 133 120 130 143 151 171 166 186 194 183 191 186 182 191 188 218 176 199 122 136 139
67 77 88 86 77 83 103 103 109 97 87 84 78 76 85 96 100 99 101 108 150 153 117 129 142 133 130 115 131 175 158 117 148 186 184 193 196 159 138 170 177 156 147
109 104 109 110 102 94 101 81 75 70 58 67 64 53 66 87 99 114 118 131 158 155 137 111 96 84 76 52 99 124 113 115 151 192 180 162 170 195 136 157 166 157 136
112 124 126 125 122 99 78 83 86 82 86 78 67 62 78 92 101 116 121 130 135 97 85 102 109 89 61 90 93 64 63 102 124 113 124 150 179 233 152 163 100 79 103
93 97 99 127 121 84 87 99 92 89 94 86 76 90 94 92 98 98 107 83 51 61 82 97 99 75 50 58 52 40 23 32 40 49 71 76 79 81 71 70 73 69 107
80 87 125 142 115 110 120 105 90 94 90 95 100 89 79 78 73 70 59 42 32 38 30 30 11 -7 0 27 30 37 26 41 49 67 74 84 97 107 131 136 134 126 120
76 95 122 130 137 133 115 108 88 86 92 96 88 74 61 57 43 34 12 -8 1 9 -11 -10 6 21 16 29 40 40 44 55 61 74 90 106 108 111 118 120 118 109 125
114 130 145 157 146 125 120 118 87 74 74 71 70 56 43 20 11 0 -6 -23 -18 -1 -8 1 -2 29 22 44 52 60 49 60 57 59 68 82 92 96 94 106 106 113 105
83 97 112 108 102 119 150 118 79 62 59 54 49 39 14 2 -5 -7 -28 -22 4 14 17 25 19 24 27 26 49 57 47 48 53 56 52 55 69 62 70 82 88 87 93
97 98 106 100 94 98 101 91 64 50 52 46 28 24 9 0 -12 -5 -9 -5 12 23 23 33 31 19 19 34 35 42 43 47 49 51 48 45 47 62 70 85 78 80 97
84 93 113 109 77 68 67 54 25 16 19 19 9 0 -2 -2 4 8 14 24 29 39 41 45 41 30 24 24 32 49 57 35 54 45 34 40 45 53 69 75 69 90 92
80 106 118 91 68 59 49 29 20 16 27 13 9 7 18 19 27 32 35 45 47 51 51 50 49 41 48 41 40 41 40 43 46 42 42 34 44 57 67 80 89 90 86
102 120 116 89 65 69 53 42 16 21 19 22 23 28 28 45 58 55 43 51 37 42 53 49 52 59 54 40 39 35 36 38 32 45 52 60 71 83 100 107 104 99 89
134 126 101 91 81 75 69 61 17 23 28 37 40 38 50 58 63 69 77 60 51 53 58 56 52 43 41 44 40 29 25 25 28 64 67 74 85 97 112 114 109 93 87

GFSMW_con_3kmhel_072.txt.gz
Helicity
95 135 195 227 188 248 243 243 208 196 140 142 146 146 135 123 116 122 139 145 156 165 162 158 153 216 237 223 229 248 217 190 228 242 225 213 202 199 212 241 262 267 273
131 199 218 236 239 208 227 217 202 217 224 193 182 184 156 126 139 142 148 154 153 169 180 176 174 196 219 220 224 266 267 228 286 294 331 288 260 230 249 280 284 284 314
125 177 187 187 178 181 178 179 179 164 164 201 219 225 211 202 190 162 135 126 136 152 171 175 182 169 206 220 232 274 293 220 269 323 301 252 251 253 227 202 268 299 322
187 182 167 171 160 159 157 160 162 178 190 195 203 207 186 169 157 165 174 163 150 139 133 130 143 156 186 179 192 241 251 224 201 290 305 354 363 264 224 235 192 184 229
192 165 136 119 121 137 159 184 212 226 227 208 184 173 188 181 167 161 162 166 159 148 132 121 129 154 161 158 170 194 182 205 198 265 259 246 340 377 338 202 272 268 238
200 191 151 136 158 182 204 216 215 216 213 197 192 176 174 178 184 177 165 184 202 239 222 160 122 110 131 134 154 149 159 161 166 178 193 239 230 224 267 292 312 277 252
214 167 147 162 173 189 193 180 173 169 160 146 152 152 144 149 155 159 158 172 193 196 242 242 215 171 144 124 133 152 141 132 157 155 150 179 180 203 246 242 263 239 272
186 166 161 163 163 156 148 136 133 134 134 122 129 134 136 122 131 149 151 166 175 182 204 207 200 204 210 213 206 181 167 154 135 133 150 160 170 201 197 235 258 268 237
175 151 137 129 119 110 110 101 104 121 122 114 121 134 138 146 145 163 166 165 184 181 193 201 207 216 209 197 191 183 167 169 157 160 166 167 193 226 263 261 260 251 200
157 131 116 102 92 80 76 85 93 98 103 119 125 137 157 169 168 167 179 179 186 195 193 196 196 192 183 165 152 155 181 194 199 209 212 193 180 187 199 207 222 232 252
113 101 97 86 78 79 80 86 98 101 116 128 132 142 151 150 149 151 153 146 136 139 139 146 151 149 155 164 161 172 193 214 225 233 235 218 180 181 203 176 191 191 196
105 96 85 83 78 65 63 72 90 105 110 120 133 138 132 130 128 124 120 113 111 111 108 107 120 133 134 140 146 177 195 174 196 234 213 176 155 148 153 152 177 180 159
110 94 97 86 72 54 46 63 92 107 119 124 125 122 117 113 109 108 110 115 107 119 126 128 126 114 128 133 131 137 170 157 181 172 131 130 127 136 138 121 157 163 131
103 99 101 94 85 64 64 74 105 111 106 107 102 94 85 80 83 92 109 118 123 139 142 133 112 106 98 117 116 133 158 142 148 129 123 132 109 87 110 115 98 116 157
92 106 117 123 118 108 101 96 108 102 87 81 68 59 62 70 81 99 112 115 129 127 128 119 126 143 146 111 98 119 120 131 117 134 139 96 80 86 100 92 98 133 162
114 125 134 150 143 129 118 116 105 87 73 62 58 49 58 72 88 103 120 126 125 132 134 162 137 116 96 101 103 71 52 39 24 21 36 47 74 88 88 96 92 83 84
127 134 145 149 156 144 133 119 102 87 77 71 61 62 69 86 97 103 103 117 106 104 128 128 101 79 64 60 45 41 23 37 38 47 55 65 70 83 89 94 119 130 130
95 111 136 151 151 163 161 139 109 96 83 87 80 71 80 92 98 100 96 97 95 84 67 56 31 9 18 50 51 50 34 47 46 55 67 78 82 66 91 98 101 108 119
97 101 130 160 172 175 170 153 111 92 89 83 83 78 84 87 95 87 78 57 50 36 35 22 26 33 26 35 28 35 31 43 43 44 50 66 75 87 89 93 101 114 126
111 118 132 150 162 153 150 137 107 83 83 80 80 83 79 80 67 52 45 27 14 21 21 26 23 39 34 41 45 44 35 41 37 43 54 66 75 71 64 79 81 84 87
118 123 138 142 128 136 133 117 91 65 70 75 76 73 69 58 48 37 11 6 12 12 14 29 31 29 28 28 42 47 37 35 39 45 43 44 41 44 53 69 68 65 78
113 94 108 111 105 122 136 110 84 77 82 69 56 49 48 38 28 8 10 25 29 30 32 37 34 24 25 32 34 38 39 39 44 46 42 37 38 54 59 71 57 69 94
107 99 104 106 89 91 99 80 60 72 58 31 17 26 36 23 15 17 20 29 30 40 40 45 47 39 35 34 45 44 47 56 49 40 31 27 41 60 69 69 74 107 101
107 101 104 93 78 75 67 52 56 38 21 19 24 23 19 23 25 29 36 42 48 51 53 54 52 53 51 39 37 38 40 37 41 33 37 41 56 70 79 91 104 106 107
125 116 98 84 77 88 75 58 43 53 41 27 30 31 30 41 46 35 39 47 43 55 67 58 65 72 59 46 39 39 39 40 34 50 57 69 79 86 95 104 113 119 118
143 139 120 95 85 92 84 76 57 62 74 72 52 45 53 53 61 69 68 43 44 48 48 55 62 48 39 38 43 38 33 27 27 72 69 76 82 85 98 106 115 122 116

GFSMW_con_3kmhel_075.txt.gz
Helicity
141 146 150 162 185 219 185 170 141 136 140 161 155 141 134 133 126 122 121 118 125 132 167 174 174 192 204 187 204 229 214 203 236 230 186 176 166 169 187 233 245 233 259
119 161 194 216 220 213 226 224 201 188 175 150 145 145 148 145 130 123 125 138 158 165 167 164 164 183 206 213 228 267 252 244 274 260 262 191 177 204 211 253 233 229 294
118 140 185 214 214 196 186 185 193 196 185 188 194 207 199 182 163 143 135 139 148 159 169 168 165 171 199 196 203 236 244 205 224 229 246 223 181 187 185 177 190 212 218
185 186 172 198 189 179 170 160 154 165 187 196 182 178 186 179 174 179 176 164 163 143 149 162 176 179 191 185 176 192 196 220 170 207 184 238 246 199 194 212 211 174 153
153 150 149 167 187 178 171 164 166 175 168 175 181 195 202 199 183 177 178 181 195 203 188 159 152 150 156 156 144 142 150 180 176 190 189 173 209 236 226 161 197 201 178
183 205 219 197 202 206 201 186 170 182 181 168 166 157 164 168 170 171 161 173 192 211 226 202 167 141 121 116 116 112 116 123 123 132 162 180 186 191 194 190 180 206 185
290 238 222 177 160 158 168 167 173 187 179 165 159 153 153 160 160 152 142 153 150 150 186 195 211 200 197 181 153 142 147 150 147 157 149 151 172 177 210 214 201 213 229
287 237 179 155 138 141 153 160 161 163 160 144 142 130 124 119 129 144 140 149 153 161 181 195 212 230 237 234 239 238 241 224 218 207 198 177 193 198 192 208 214 228 234
240 221 185 144 133 143 144 130 128 133 132 120 119 133 132 133 131 148 155 156 175 179 195 204 210 216 216 220 219 210 213 213 197 194 201 208 230 234 233 226 221 216 186
233 193 156 135 133 113 106 112 110 104 105 113 112 116 126 133 139 151 167 175 186 197 201 207 210 209 198 185 178 174 171 160 152 157 173 195 193 200 195 191 194 200 199
132 126 123 129 116 96 82 78 78 77 91 97 100 110 123 136 147 153 158 159 155 160 159 154 150 151 148 140 140 152 149 152 144 148 160 188 190 202 161 157 166 173 162
115 118 115 116 102 78 68 63 64 73 84 96 107 119 134 142 149 151 147 136 126 122 127 129 129 126 133 142 139 147 156 165 170 173 197 198 195 165 141 140 149 135 109
121 121 121 100 91 87 76 58 47 57 82 103 112 120 123 128 125 121 122 116 108 116 134 138 144 141 147 143 143 145 169 186 180 142 168 160 142 144 118 104 111 115 90
116 112 110 90 78 73 69 60 56 64 89 110 113 114 103 92 87 88 103 118 116 123 126 130 123 143 141 133 134 145 156 177 178 157 144 133 116 92 83 80 91 57 86
97 98 104 99 101 104 91 86 82 81 90 107 105 93 88 78 73 78 92 113 123 128 138 125 145 135 131 120 128 115 119 123 119 120 112 103 77 77 54 37 57 76 82
73 92 102 118 127 130 114 104 98 100 110 102 86 69 63 62 67 81 105 130 142 142 136 157 147 131 131 147 126 92 62 28 34 44 43 45 63 65 74 82 103 102 110
99 109 119 129 148 148 142 125 118 118 107 88 62 59 60 64 78 100 115 117 117 116 128 129 128 143 115 109 71 58 37 42 42 48 49 57 57 69 78 100 124 136 141
93 107 131 144 161 174 171 173 143 114 96 76 72 64 69 82 93 104 108 101 107 110 101 97 90 72 48 52 48 44 32 40 49 53 52 63 68 49 81 87 101 114 128
94 101 121 142 171 186 186 178 146 120 97 87 86 81 84 95 101 105 103 106 102 91 88 62 66 54 50 49 43 44 43 53 57 60 55 69 82 78 77 78 89 98 107
107 111 133 154 175 164 184 170 130 115 94 86 89 87 96 91 95 106 100 62 72 64 51 61 57 54 51 48 51 46 43 57 58 60 64 74 69 65 62 75 82 92 91
116 129 125 114 111 152 160 129 109 84 78 88 88 89 91 87 92 80 55 50 38 36 43 50 44 43 43 42 52 54 49 56 62 63 56 52 48 61 63 78 76 74 85
123 105 119 98 108 135 141 119 97 84 79 83 77 78 81 69 56 44 44 48 45 40 38 39 40 35 36 44 36 50 52 50 54 53 47 43 36 50 53 64 49 69 101
101 109 104 103 97 110 119 117 91 85 82 82 70 66 63 45 35 44 50 53 43 49 46 47 47 46 47 43 53 57 55 58 51 47 37 38 39 49 61 59 69 108 101
98 113 124 85 84 87 96 98 96 83 83 56 46 42 48 48 49 42 42 47 57 57 55 58 57 60 58 50 49 54 53 45 54 50 52 44 52 65 73 87 98 102 105
98 108 108 89 78 91 75 85 77 90 73 49 49 58 60 60 56 46 49 46 40 60 66 60 70 80 70 61 56 60 56 55 47 68 68 73 80 84 89 93 97 107 115
148 109 106 107 93 101 87 80 87 90 89 66 59 57 66 70 75 70 62 47 43 38 39 49 69 69 55 57 50 47 47 52 55 92 84 83 88 89 93 99 104 117 113

GFSMW_con_3kmhel_078.txt.gz
Helicity
60 85 100 113 117 129 122 111 96 110 130 141 132 117 121 124 114 109 98 94 105 132 144 144 143 159 164 156 179 194 180 168 208 208 161 157 155 156 161 175 170 165 172
46 82 94 134 158 143 148 144 142 141 137 140 140 135 117 124 138 122 99 103 110 118 128 137 141 156 172 160 169 209 213 208 228 208 204 153 135 139 128 151 159 160 177
63 91 118 130 154 168 171 178 179 163 152 149 150 152 150 149 137 131 124 126 115 117 127 138 154 164 182 169 169 198 199 187 184 188 198 181 160 143 127 124 121 132 145
68 146 172 207 218 226 225 206 192 185 180 170 145 139 134 132 154 167 175 187 198 176 155 137 142 155 181 168 162 179 179 195 160 178 154 187 214 160 162 161 136 134 118
107 128 147 163 201 200 197 198 196 195 183 172 157 146 151 168 174 176 179 184 194 208 211 184 155 149 169 167 158 163 158 163 161 167 168 154 170 182 180 141 152 167 141
138 184 195 206 220 212 191 168 163 168 173 170 174 163 162 175 185 193 188 187 186 196 210 198 184 173 154 148 143 138 142 147 153 150 147 156 158 158 165 164 158 169 172
220 287 281 237 228 217 199 166 148 153 158 166 177 177 171 173 169 170 175 186 178 172 187 185 187 180 187 190 177 166 162 157 164 162 157 157 153 159 171 186 195 188 184
216 279 287 271 231 209 198 176 153 149 162 168 172 172 164 146 145 146 140 150 149 154 166 173 180 194 208 208 220 226 232 225 226 227 203 188 187 188 204 208 200 186 196
155 239 308 279 249 210 172 150 154 169 164 151 141 149 148 145 132 130 122 121 133 141 162 174 186 201 214 222 225 224 234 236 221 209 190 171 188 203 205 203 204 221 211
177 226 253 240 205 161 153 157 158 142 123 117 112 112 114 117 117 120 126 131 140 154 166 185 202 213 219 220 218 210 201 194 189 176 169 176 183 211 213 188 205 193 179
176 177 175 158 138 136 129 130 123 107 105 102 102 108 112 111 113 116 126 133 141 157 164 167 170 176 175 171 165 165 155 168 168 164 156 165 180 187 174 195 174 159 157
120 135 127 126 122 114 105 97 90 85 75 75 83 95 105 117 126 129 136 142 148 148 145 143 146 149 148 149 151 158 170 165 168 160 149 125 147 180 166 148 141 129 119
112 117 119 107 98 93 89 79 68 65 64 71 82 98 111 120 128 132 134 140 136 133 135 138 150 154 157 158 172 174 168 184 190 158 136 141 145 150 135 120 110 85 83
122 113 110 92 97 96 87 82 77 62 59 77 90 101 98 92 87 91 106 116 117 124 131 137 139 147 148 155 153 144 168 191 188 184 157 126 110 95 84 88 84 69 70
149 110 107 104 104 104 97 86 81 81 87 92 94 98 107 103 94 90 86 97 116 128 131 127 133 139 149 128 115 124 137 139 141 111 92 81 71 83 82 61 71 67 64
92 107 108 107 108 116 109 99 91 89 94 98 101 103 104 89 81 77 79 105 131 151 152 151 144 131 128 129 112 90 91 68 59 69 67 77 84 82 84 89 97 92 83
81 100 103 119 136 142 140 129 129 137 120 114 106 97 82 73 71 74 88 116 131 138 141 139 133 125 106 103 99 74 42 53 57 64 61 65 61 76 82 91 103 110 117
63 93 123 139 155 175 184 190 171 143 130 113 100 90 73 71 74 86 104 118 119 120 115 112 108 93 70 57 44 58 40 54 57 58 55 61 64 51 78 86 98 105 117
80 82 114 145 161 180 206 209 177 155 136 118 105 90 85 85 89 97 104 107 106 109 106 85 75 59 34 32 43 45 45 53 60 59 50 64 75 80 87 86 93 94 96
96 97 123 155 169 165 205 202 163 146 124 118 106 100 97 100 100 102 100 97 100 94 69 77 49 35 45 49 53 49 48 61 61 59 59 66 63 70 74 79 83 91 72
103 136 148 121 116 152 170 148 140 107 102 107 101 102 102 107 106 108 107 83 69 71 59 53 48 51 58 53 59 65 59 61 62 61 55 47 51 58 64 75 63 54 60
130 123 116 108 107 119 134 124 98 96 108 102 93 103 100 87 85 92 70 41 39 47 48 47 49 48 43 54 59 63 60 57 64 58 46 36 34 54 61 71 48 66 83
108 107 104 110 96 89 100 107 79 120 115 95 90 95 89 82 70 62 39 53 39 52 51 55 54 44 47 50 65 65 65 66 61 53 34 38 47 53 64 59 65 87 80
73 84 106 87 90 66 78 79 113 99 109 90 91 91 87 67 46 44 52 52 56 54 53 57 56 58 56 54 58 63 67 57 62 53 54 49 52 61 65 77 86 86 88
78 88 91 79 65 75 77 95 112 103 89 91 84 69 49 43 50 44 48 46 42 69 70 55 63 76 66 58 58 72 72 65 55 77 76 77 76 77 78 79 83 92 100
85 120 96 88 83 91 89 96 100 91 93 84 75 60 60 78 74 62 44 27 30 38 37 50 72 71 60 67 59 54 54 56 58 105 94 89 88 83 80 79 82 102 104

GFSMW_con_3kmhel_084.txt.gz
Helicity
164 151 176 126 75 84 62 64 57 48 62 58 60 58 58 58 64 65 67 74 75 75 80 82 77 82 86 83 88 94 103 112 113 145 119 108 108 112 99 84 99 89 90
156 188 203 137 93 75 75 66 81 52 74 77 70 83 83 79 83 95 86 82 84 87 90 84 85 86 97 94 103 118 137 143 160 166 190 137 119 104 95 76 80 78 68
162 201 218 174 128 91 79 73 75 86 90 99 104 102 110 104 103 99 108 112 115 108 100 92 97 102 115 124 120 131 136 153 157 140 177 167 132 135 92 94 87 98 100
147 204 201 151 110 90 81 87 90 94 102 103 92 89 93 97 122 136 128 127 153 157 153 151 147 142 150 139 140 148 157 170 160 182 138 122 174 149 128 116 100 98 85
171 176 203 147 114 76 83 93 105 123 131 126 119 111 111 125 123 122 121 135 143 174 188 187 173 155 156 145 136 143 154 175 162 162 148 133 120 115 148 149 111 101 114
181 129 139 124 123 94 85 101 112 143 156 159 148 131 116 108 104 112 115 128 143 166 193 191 186 167 156 147 145 139 147 163 155 162 148 163 162 143 156 145 125 115 128
206 159 6 44 84 96 108 133 130 146 164 171 159 140 126 121 121 124 131 128 136 147 165 174 170 163 153 147 141 133 142 163 172 168 177 176 211 229 198 185 142 115 133
58 67 131 71 29 65 138 165 171 158 158 155 153 150 139 141 152 156 152 161 161 160 155 148 145 147 145 144 149 160 187 209 231 243 248 275 261 226 199 195 154 116 121
89 64 -64 -0 32 160 193 193 197 179 170 174 168 163 160 155 155 165 169 168 164 158 152 149 147 148 150 159 163 168 197 234 262 282 274 257 238 211 173 154 144 146 153
35 60 73 97 145 220 245 233 215 200 202 184 168 154 152 164 174 172 167 169 164 161 156 151 148 148 153 162 167 185 203 220 235 226 212 193 178 151 144 137 124 139 154
41 71 109 131 191 238 234 232 215 190 170 157 151 150 159 168 170 168 159 154 151 154 154 153 150 153 158 167 172 184 184 188 181 182 167 158 144 134 132 135 145 151 139
30 46 121 150 195 197 171 159 159 145 139 140 140 149 143 135 130 132 134 134 132 136 137 139 142 150 162 168 172 172 171 169 167 160 152 142 130 127 128 134 128 109 95
33 41 78 123 152 154 155 144 129 123 123 121 116 110 107 104 107 116 125 134 136 133 126 120 125 136 161 170 177 169 171 168 158 143 135 131 118 123 111 96 78 63 52
25 33 33 57 89 111 114 114 119 118 116 107 92 83 78 88 101 108 118 124 129 123 122 116 122 129 142 149 156 157 154 159 154 159 147 130 121 93 64 61 62 62 66
24 50 36 46 72 91 106 108 108 110 103 95 90 85 86 94 100 100 101 107 102 109 119 116 113 105 123 127 132 137 136 142 145 141 132 106 71 75 66 57 67 69 80
55 52 65 62 92 93 87 104 102 102 99 90 87 95 96 92 89 95 102 96 93 92 102 106 100 105 112 116 124 122 127 121 108 107 84 78 82 76 87 100 113 110 95
38 63 83 100 75 83 91 95 97 110 101 97 97 93 95 96 89 84 84 88 84 91 97 110 116 124 124 118 107 111 99 95 80 63 54 56 54 50 52 77 97 110 124
106 53 71 74 56 92 88 97 120 121 119 110 108 109 104 97 97 91 82 94 93 91 97 113 113 121 116 100 95 97 93 69 58 55 55 54 51 60 60 68 83 81 82
87 64 40 40 65 78 96 132 149 155 151 141 122 119 110 106 109 104 108 125 118 111 104 107 107 98 86 80 67 58 45 46 50 55 54 50 53 63 62 64 60 60 71
70 86 76 99 79 87 123 146 154 163 154 140 124 121 109 103 98 125 135 128 111 105 102 110 94 80 67 50 35 31 38 42 45 50 48 48 50 55 56 47 54 63 70
92 106 122 120 108 136 136 128 149 139 126 139 139 123 116 103 114 142 152 138 119 106 98 91 81 58 43 31 25 29 40 41 44 49 45 42 44 51 47 45 62 67 66
129 120 142 140 134 124 124 129 119 126 149 148 134 121 116 118 123 126 130 110 101 94 83 80 62 40 28 31 29 30 33 44 49 45 47 52 43 41 41 45 57 61 57
118 135 138 148 136 119 113 105 92 120 130 131 122 113 102 108 115 132 114 106 80 74 60 50 43 35 31 37 27 23 32 37 44 49 52 50 44 43 51 47 47 60 56
75 79 95 103 108 97 90 81 104 109 110 99 102 107 107 115 115 105 92 78 46 34 31 39 37 38 43 43 47 41 41 39 42 51 53 57 58 56 57 64 57 65 63
52 59 79 90 87 82 77 92 101 90 93 96 92 96 93 105 102 81 68 39 -3 19 41 42 41 52 54 51 44 50 60 60 56 68 75 80 80 81 85 84 79 80 83
44 61 85 104 74 55 77 88 91 87 89 88 87 95 96 100 81 65 26 -6 1 14 19 30 43 51 42 61 43 42 47 55 68 83 88 87 88 89 94 95 96 99 93

GFSMW_con_3kmhel_087.txt.gz
Helicity
75 99 120 150 169 142 94 84 59 52 66 69 71 81 80 78 70 63 60 67 71 78 80 80 81 95 101 92 92 102 100 113 110 133 110 105 100 87 119 102 99 136 151
120 81 148 158 168 144 118 93 68 51 59 67 65 73 77 67 63 66 72 73 80 91 99 100 106 111 120 105 112 121 148 155 151 192 163 146 113 110 166 196 155 154 139
96 119 108 141 169 151 133 118 90 85 87 81 114 144 142 130 96 90 84 97 121 119 144 137 137 145 151 140 127 141 154 170 182 166 160 180 161 185 145 138 126 119 146
246 134 180 214 206 199 164 150 137 112 126 124 134 115 97 74 84 129 127 126 138 149 142 139 145 152 162 161 161 167 186 199 191 170 184 133 181 205 173 139 120 96 100
202 208 258 220 246 211 174 159 115 103 104 98 109 126 107 144 187 136 126 107 119 148 149 151 151 141 146 167 169 163 167 176 179 170 198 173 154 167 173 166 145 144 132
83 248 183 204 208 216 175 181 104 99 97 107 116 113 128 134 133 128 116 118 117 115 146 159 169 165 158 148 148 147 148 161 171 175 180 196 200 168 161 159 129 140 185
85 99 175 190 162 209 149 155 110 113 105 117 139 150 162 157 152 144 124 106 103 109 128 148 153 160 155 146 142 129 120 132 149 155 174 176 188 206 214 209 202 172 148
121 72 129 194 131 166 129 118 99 129 118 141 160 171 165 162 153 132 126 136 145 156 150 150 152 151 147 144 134 135 154 177 199 208 232 261 241 223 235 213 185 151 126
75 90 178 311 54 101 66 70 134 160 148 171 168 168 194 167 148 151 160 165 169 174 157 151 152 155 153 148 148 138 146 183 206 245 261 254 254 247 200 195 160 143 127
58 80 137 143 129 68 57 85 111 139 161 185 181 158 148 163 173 167 159 170 175 177 171 159 148 142 139 140 136 143 148 175 199 201 207 221 214 186 166 148 150 151 138
45 59 90 146 230 168 139 221 191 247 266 207 190 180 186 174 162 158 154 162 153 159 158 151 143 144 142 138 137 154 161 158 164 181 192 186 154 155 136 135 139 133 132
78 59 64 102 142 153 143 119 192 192 216 197 173 159 145 137 136 143 149 146 140 133 140 136 135 138 142 151 159 163 164 174 168 172 174 153 139 150 136 133 136 133 112
83 55 52 75 96 119 155 162 187 199 182 164 149 140 130 120 120 120 119 121 122 126 127 128 132 137 147 160 172 176 172 181 168 149 140 140 134 132 124 115 101 77 57
6 4 42 44 57 88 121 140 157 168 158 145 141 138 130 122 110 101 100 110 126 128 127 127 129 136 136 145 146 154 146 163 173 187 181 170 157 124 113 84 60 52 58
-17 -34 27 52 59 70 87 109 122 123 120 129 129 123 116 107 104 100 102 111 117 128 134 130 124 115 117 127 131 140 144 155 169 168 164 147 136 128 84 64 68 66 69
5 71 63 81 75 71 73 94 109 113 108 104 104 107 93 91 88 96 103 107 108 110 118 129 139 124 113 105 115 143 159 170 155 148 137 126 110 100 101 105 122 125 96
27 72 85 84 78 81 92 95 104 117 118 109 103 97 91 90 103 106 101 99 98 105 105 114 121 133 121 120 135 134 138 128 131 129 115 73 52 57 58 77 87 110 125
57 60 69 88 76 99 118 117 125 105 99 107 116 112 105 105 117 103 89 104 107 104 116 128 128 119 120 118 121 121 123 97 95 82 57 47 51 67 59 70 76 78 94
39 61 73 77 113 129 145 129 126 115 113 125 137 130 126 126 108 95 111 158 158 162 147 124 103 100 95 96 100 97 79 69 61 63 62 61 55 61 76 73 65 72 78
82 81 75 67 120 136 146 137 120 113 109 121 136 144 145 144 118 111 143 153 144 143 130 104 90 94 95 80 76 80 77 60 57 52 58 69 81 66 74 60 59 61 75
105 98 95 104 116 138 135 112 131 125 133 158 171 164 159 149 159 161 149 155 149 136 106 87 81 85 82 78 59 53 58 55 53 54 53 59 64 68 65 66 73 83 79
90 109 108 137 175 154 124 130 149 171 181 171 161 163 149 168 163 132 141 143 137 125 98 85 86 91 81 67 38 33 35 48 54 55 64 75 66 60 53 57 76 68 77
76 94 137 168 161 135 126 142 142 149 155 142 136 130 133 143 131 146 159 154 136 122 95 81 77 71 58 43 25 23 31 38 59 68 75 90 65 57 56 53 59 63 73
60 72 92 120 133 125 134 132 126 117 116 109 109 118 121 133 127 146 148 140 123 99 73 65 57 40 40 39 48 49 48 42 62 73 70 64 69 63 62 72 64 75 75
52 55 65 84 102 112 124 137 106 101 96 94 87 106 107 115 117 133 134 114 85 61 46 38 32 39 49 49 45 54 70 75 69 73 84 91 87 86 83 84 81 94 100
44 50 69 79 91 109 125 118 106 87 73 90 101 88 105 111 120 123 98 42 21 4 -6 16 35 48 41 56 37 37 41 50 63 94 95 93 96 101 98 100 105 115 101

GFSMW_con_3kmhel_090.txt.gz
Helicity
131 119 110 79 132 156 171 151 153 108 122 145 174 160 166 157 164 120 101 80 74 74 92 83 84 87 105 107 111 108 129 119 115 145 155 129 110 105 100 94 110 146 182
135 257 126 115 152 163 184 158 156 142 141 148 124 120 119 103 72 80 102 96 108 113 109 127 119 105 125 136 127 131 150 157 169 191 190 149 116 114 156 186 236 246 228
140 259 226 127 157 168 161 181 181 158 142 125 174 181 150 124 81 91 83 85 135 158 166 169 154 144 159 148 147 162 172 173 182 183 195 190 138 159 166 181 208 196 172
64 166 242 268 177 172 223 215 187 180 192 211 189 139 134 141 155 126 119 128 152 161 168 146 131 134 146 151 155 161 175 198 191 195 194 172 196 176 194 171 173 152 161
102 53 250 380 327 283 296 299 288 234 210 206 202 183 159 170 183 213 222 153 130 172 172 157 156 163 150 162 165 172 174 187 199 189 186 167 169 153 204 199 144 181 188
103 87 262 336 334 290 249 308 310 279 220 176 191 195 162 189 212 210 211 197 149 107 157 144 148 157 169 160 152 149 148 148 153 156 157 186 183 187 214 215 183 143 184
129 115 268 341 354 282 223 260 291 289 255 160 224 330 195 180 155 156 169 163 138 127 135 126 152 155 162 162 156 152 148 134 134 128 131 136 157 189 219 210 191 217 209
184 156 183 211 300 330 253 256 251 257 195 169 179 198 204 197 202 188 187 200 199 175 151 150 153 156 161 165 164 146 155 165 164 164 184 188 206 193 208 214 224 207 186
143 204 193 197 321 297 265 199 160 186 158 185 205 233 225 211 203 211 226 209 219 183 166 156 157 159 158 161 161 156 168 159 165 182 187 206 233 230 232 222 225 230 189
95 115 164 191 256 241 208 168 147 232 158 154 172 162 160 177 204 249 217 178 149 167 167 170 170 167 157 156 156 154 168 164 154 167 178 193 196 208 202 191 183 164 142
83 95 92 139 187 223 242 316 309 240 162 197 208 237 228 213 177 169 148 163 163 155 158 157 148 156 160 156 151 155 179 153 152 168 193 193 171 171 169 158 146 146 147
115 89 96 99 182 247 259 253 355 103 170 215 217 109 99 132 143 137 139 155 171 175 163 157 159 157 157 164 185 183 175 192 199 200 219 203 200 210 167 139 143 126 116
23 73 95 107 113 206 227 249 297 260 237 219 300 289 223 180 168 167 172 170 160 150 136 142 157 171 170 173 187 214 214 216 211 181 176 165 163 164 158 136 121 108 105
-15 10 62 74 82 102 145 207 219 232 236 241 250 206 177 175 176 167 164 154 150 133 126 140 158 163 160 171 173 175 185 194 210 228 245 219 185 153 136 128 113 82 62
-91 -49 -18 29 64 97 119 156 183 200 186 187 180 160 154 156 152 135 127 132 133 141 143 114 103 112 141 146 153 156 161 181 205 198 187 173 171 160 132 112 92 63 70
-43 10 -0 57 98 140 157 144 146 146 145 136 128 140 147 155 149 143 143 138 126 122 118 134 133 123 127 128 135 153 161 172 170 176 185 180 178 156 131 98 112 98 75
61 31 38 154 159 168 170 146 160 166 140 131 128 141 137 141 136 149 142 130 108 105 101 106 119 136 129 111 125 132 146 148 144 148 142 125 107 88 74 90 111 111 130
76 90 100 137 145 173 175 184 191 172 153 139 145 144 157 154 173 156 126 122 106 97 107 130 128 137 129 115 111 115 132 133 123 108 87 82 66 61 60 72 84 106 122
56 63 73 90 146 186 221 224 223 210 164 146 150 159 161 185 186 154 137 139 132 131 127 125 130 136 125 95 99 116 113 108 103 99 82 63 54 50 75 74 76 86 87
74 94 99 105 114 206 270 285 247 230 175 154 174 172 180 197 188 163 144 131 127 121 132 121 114 95 95 78 86 99 88 83 78 67 63 79 53 51 67 68 61 71 60
69 135 151 105 90 249 317 253 209 149 143 158 180 191 200 208 206 181 155 137 124 136 131 121 113 100 95 77 66 65 85 72 64 59 60 55 52 57 68 86 84 68 72
82 134 144 194 203 255 250 193 146 135 178 207 206 203 217 224 184 171 153 144 152 151 137 121 117 95 84 80 54 50 52 53 59 55 56 52 52 62 68 85 79 78 99
63 90 126 183 237 240 180 176 155 193 203 197 179 180 194 175 155 144 145 155 153 143 127 130 122 97 79 74 47 39 28 34 58 61 59 59 57 54 60 56 65 70 88
41 37 68 97 128 151 147 133 149 163 164 155 158 163 148 133 134 133 135 148 152 136 119 121 94 78 78 61 36 36 33 25 41 61 71 68 65 60 60 65 66 84 79
29 38 37 52 76 92 119 108 109 118 128 135 128 148 110 98 120 113 120 125 117 119 108 98 91 69 64 50 32 39 40 52 59 70 81 89 91 80 80 86 84 84 83
34 43 49 52 49 59 77 89 102 120 119 104 134 134 117 117 125 109 93 55 63 55 35 36 41 26 30 19 16 22 27 33 41 90 107 102 96 94 95 98 95 103 101

GFSMW_con_3kmhel_093.txt.gz
Helicity
71 86 75 76 111 124 129 115 119 105 129 148 114 140 166 172 172 172 164 143 99 99 92 81 58 64 77 83 95 101 86 100 110 134 120 118 108 94 96 86 101 160 227
89 132 128 108 115 114 123 152 118 123 137 136 144 152 172 173 174 171 202 176 155 107 99 81 81 88 86 102 108 112 117 125 145 153 145 119 141 123 135 141 191 214 238
88 186 179 126 131 136 154 148 149 146 146 151 227 200 161 143 121 121 133 123 127 120 111 101 97 90 95 111 125 129 140 124 147 173 180 168 145 150 157 198 212 207 203
134 166 201 173 142 112 168 177 171 168 192 241 228 201 171 174 134 119 144 165 180 208 194 174 112 106 119 106 119 130 146 167 144 158 182 222 210 175 163 177 209 206 200
86 114 134 147 146 149 168 208 228 220 264 291 230 223 215 176 176 197 247 273 242 211 220 237 177 136 169 152 151 152 149 164 172 164 167 182 185 194 217 193 193 234 217
100 93 91 143 232 240 237 258 257 278 258 274 252 253 246 238 295 284 291 259 245 236 247 216 199 158 165 175 162 149 148 134 141 150 142 169 190 180 213 233 208 213 285
137 126 152 207 302 254 241 230 222 242 243 212 234 253 283 318 282 250 265 261 226 220 199 201 181 152 145 155 153 149 144 151 143 132 135 148 152 177 191 208 196 226 256
111 130 199 188 165 204 214 246 256 290 268 260 270 279 277 270 301 172 202 195 243 178 154 144 129 143 155 168 166 158 152 155 154 154 153 160 178 193 202 214 230 230 222
121 113 183 209 177 158 154 180 223 261 293 319 318 309 293 298 297 253 261 247 209 162 148 137 138 176 162 147 163 162 162 163 166 164 166 171 188 204 208 212 235 242 227
131 141 192 148 141 167 193 209 209 220 236 271 288 255 226 229 223 216 179 148 131 113 78 116 167 131 166 169 165 167 166 168 173 159 155 168 180 192 197 213 213 212 207
149 118 139 144 130 171 179 184 202 220 243 294 340 225 163 171 180 172 156 143 137 164 193 144 143 186 193 195 184 165 165 168 143 160 150 161 171 179 184 177 184 172 184
75 92 84 100 114 130 163 176 221 224 198 282 359 330 124 169 131 119 155 166 189 168 133 152 189 183 182 184 186 169 177 168 179 194 190 196 198 202 188 157 155 153 157
27 47 74 93 72 106 173 226 252 244 251 253 326 316 140 130 191 324 329 191 147 141 153 149 134 175 178 159 162 167 175 188 186 176 166 163 178 182 173 159 150 135 130
-14 -11 -14 24 74 80 111 166 213 227 237 225 205 218 191 191 176 184 210 182 152 151 155 148 138 136 133 133 141 151 163 183 204 205 196 183 162 165 158 153 141 133 125
-2 -34 -42 -24 16 67 90 124 159 180 207 236 236 206 175 154 149 169 162 160 158 145 126 118 122 106 107 126 131 135 147 176 194 197 189 183 150 129 117 132 124 105 103
14 10 23 33 37 49 110 149 162 181 185 181 166 167 163 163 151 157 154 143 134 133 134 137 113 99 99 103 112 137 152 165 170 179 182 187 201 165 158 142 122 88 64
57 49 68 105 95 81 110 167 167 162 150 147 149 154 162 163 156 155 149 137 122 126 125 123 117 109 106 90 111 131 157 155 141 136 150 157 144 152 141 144 114 115 111
57 46 48 89 154 163 144 198 194 161 140 124 137 145 159 156 163 159 137 130 129 121 117 116 113 103 111 130 140 128 145 144 130 111 116 114 109 85 80 78 85 97 97
46 41 47 66 160 195 217 229 195 180 155 123 132 151 155 166 168 142 132 136 140 124 123 122 105 105 119 117 104 116 127 125 116 117 93 86 84 62 48 62 77 86 100
43 51 65 69 138 177 255 251 202 188 141 141 140 142 148 166 161 147 148 143 135 117 121 109 105 96 113 91 86 97 112 108 100 95 90 64 50 51 43 58 65 74 68
47 70 99 113 85 154 261 248 213 165 177 171 146 143 146 165 156 167 162 151 122 117 112 107 104 103 109 90 75 75 93 85 78 74 67 67 45 40 40 57 60 58 67
62 94 117 137 137 138 251 254 183 169 159 157 152 147 163 174 181 176 155 138 116 107 110 112 107 102 98 79 57 52 56 60 74 64 54 46 32 34 44 64 60 68 75
53 72 93 134 192 172 179 227 159 140 137 161 158 161 176 177 168 151 142 133 114 120 124 128 124 123 105 83 52 41 36 34 78 51 41 31 34 36 43 49 55 57 82
46 34 59 89 120 131 121 100 99 132 157 160 155 165 171 149 154 138 124 119 119 115 119 120 112 111 92 61 54 55 50 45 65 33 28 52 55 53 56 55 52 78 77
35 33 37 50 69 81 87 84 99 123 134 138 142 145 142 131 148 98 97 100 88 104 109 107 109 106 77 63 56 53 50 49 56 66 79 79 82 81 77 73 67 81 85
22 44 39 41 44 58 68 68 69 84 105 115 126 128 117 138 123 88 69 37 36 34 33 36 64 44 38 23 19 16 20 19 26 82 94 89 95 93 87 87 89 95 86

GFSMW_con_3kmhel_099.txt.gz
Helicity
93 101 99 88 94 108 94 126 133 110 151 180 174 138 113 147 142 118 142 119 120 134 145 130 135 150 144 119 102 84 75 72 70 67 61 59 60 87 89 86 86 140 155
145 95 72 83 101 98 91 121 100 117 109 149 179 190 201 182 146 129 150 167 194 196 198 160 121 119 98 130 83 78 83 86 82 67 47 52 68 117 119 117 137 170 164
170 97 77 56 53 89 100 95 92 121 145 173 209 194 203 193 183 173 202 223 238 252 259 189 148 108 119 125 150 97 111 136 92 75 88 81 79 74 104 148 173 193 204
134 104 93 87 83 47 53 80 125 125 155 200 207 194 151 165 134 207 252 230 240 227 211 164 159 149 140 140 130 107 159 155 86 97 137 130 178 106 92 156 198 229 244
105 120 111 113 106 109 102 91 79 93 111 135 157 162 165 148 143 159 209 228 221 205 211 212 206 188 165 129 94 76 125 142 116 143 147 152 133 161 160 116 194 241 274
75 75 93 111 124 147 153 121 108 108 112 120 124 140 145 146 136 156 181 252 314 339 322 248 184 177 189 183 127 111 104 99 110 118 129 163 161 159 168 170 212 228 260
52 65 86 107 98 116 157 149 137 142 148 154 152 153 134 134 142 159 207 255 309 309 261 199 170 168 150 129 103 92 90 87 114 119 123 132 157 170 163 167 166 223 277
79 92 87 107 114 101 115 135 126 144 163 147 152 156 160 144 148 175 216 234 268 244 243 260 247 103 174 196 163 147 103 103 94 114 126 149 156 167 177 174 173 204 261
65 58 84 106 137 136 98 116 137 154 152 135 136 133 134 139 165 219 249 261 260 240 238 224 236 223 184 211 260 134 106 112 104 97 122 146 155 154 166 178 184 179 204
149 133 90 77 102 111 142 184 173 147 156 150 147 133 118 128 154 201 229 254 257 268 236 211 226 193 169 166 138 131 111 108 97 95 109 140 143 142 157 163 174 182 211
116 105 98 85 76 117 129 155 133 141 153 155 153 149 144 138 140 153 184 236 261 241 198 165 170 146 124 121 136 133 95 77 107 94 113 116 137 148 150 168 188 191 189
124 126 129 124 118 119 142 137 121 110 115 132 143 148 160 164 170 190 210 194 218 211 197 226 284 261 158 137 134 116 121 113 102 122 147 140 151 145 173 168 168 180 185
67 76 97 107 112 103 85 84 105 121 138 158 173 174 177 167 158 156 160 135 195 306 349 268 230 212 119 93 101 113 126 136 139 142 132 135 142 138 151 161 162 158 154
64 58 55 64 71 67 59 58 75 103 137 164 173 172 157 152 160 177 189 191 212 241 204 197 139 119 105 92 108 124 130 118 120 133 137 133 122 116 129 128 137 152 150
47 35 38 24 15 16 23 44 65 98 132 165 169 151 156 165 180 181 170 142 153 168 161 136 116 105 108 96 86 84 100 110 114 126 125 120 121 113 101 125 133 152 162
37 25 29 48 37 23 22 29 45 80 132 161 147 155 175 192 185 162 150 157 163 175 145 119 94 87 91 96 91 65 86 107 112 114 128 129 124 121 103 105 111 121 127
12 24 13 28 31 39 64 65 92 115 136 132 141 163 181 176 177 182 175 153 138 134 106 93 94 89 82 81 70 79 111 120 127 121 113 120 126 141 163 178 199 165 129
45 49 48 52 63 57 62 98 115 122 148 157 164 178 182 182 180 176 141 130 128 107 104 92 88 80 65 70 70 107 124 123 110 114 118 115 110 121 129 139 154 138 128
96 69 70 67 49 44 57 118 142 150 141 143 151 157 170 173 161 139 130 133 126 114 98 90 85 82 79 73 88 104 122 122 118 118 115 105 96 80 90 110 111 108 105
76 64 65 48 34 36 60 128 155 162 118 131 136 153 159 150 142 137 141 124 118 102 98 93 92 81 83 75 71 102 130 129 127 119 106 74 82 67 65 83 72 84 59
52 52 51 44 45 58 72 114 147 117 131 174 158 151 142 135 133 156 145 127 111 108 96 92 87 76 66 64 57 82 129 127 113 103 96 83 53 55 45 48 50 35 42
40 49 51 66 76 77 84 112 105 118 163 164 156 151 147 145 153 151 144 129 120 99 88 86 78 77 69 58 65 57 101 105 114 108 87 67 38 32 33 32 24 6 46
37 44 61 79 97 104 87 117 128 128 145 152 146 150 162 161 164 155 136 142 124 109 91 81 70 61 79 89 61 62 61 74 105 88 62 43 43 56 27 22 29 21 80
30 27 46 74 96 125 120 108 119 144 146 141 135 155 167 167 160 128 136 140 134 107 85 71 64 68 84 89 98 93 79 59 72 83 71 76 85 45 46 24 29 62 57
28 30 38 55 74 85 123 139 133 121 144 132 121 128 134 126 125 125 127 121 107 108 95 89 79 78 73 84 87 84 87 86 82 104 102 71 84 107 77 42 40 57 42
38 47 44 39 50 65 83 98 101 92 103 104 102 101 114 121 130 135 129 98 80 73 48 26 53 69 40 45 45 38 43 47 56 90 83 71 70 59 61 40 41 55 58

GFSMW_con_3kmhel_105.txt.gz
Helicity
202 140 82 66 54 -44 111 99 112 88 87 148 112 102 98 70 65 70 57 60 58 62 51 47 72 86 75 92 94 101 88 67 74 91 90 61 61 74 77 43 44 51 72
255 197 99 75 87 83 88 70 108 110 94 116 60 71 50 60 61 70 71 74 79 85 61 51 58 87 88 59 104 125 127 94 105 97 92 28 24 89 124 64 74 70 74
267 237 174 97 138 108 82 111 124 141 148 121 107 106 51 29 58 71 39 39 50 81 92 97 98 108 125 126 114 117 122 88 99 51 49 31 51 76 106 60 84 89 88
240 217 173 161 96 78 136 102 128 181 139 -47 105 130 89 59 26 20 29 1 80 66 94 134 141 137 153 169 172 187 145 137 98 43 136 35 129 106 75 88 76 121 117
175 157 171 158 110 115 78 79 160 165 104 86 169 301 123 51 12 45 83 130 94 124 141 149 187 204 235 221 265 269 223 51 41 162 130 136 107 114 106 64 122 105 102
119 121 114 107 118 111 101 82 95 111 134 144 120 143 121 183 229 185 114 104 115 119 142 169 194 207 224 237 297 284 233 174 2 97 99 78 92 129 136 137 96 105 106
144 117 96 91 121 120 115 110 98 99 99 109 106 98 114 124 117 136 122 130 137 129 138 165 174 172 176 189 214 222 215 162 126 127 124 83 132 160 132 111 94 100 123
75 48 45 124 119 110 117 122 110 106 106 110 109 107 106 117 119 111 113 110 121 129 127 148 162 189 179 177 169 185 185 142 110 122 103 171 146 145 105 92 97 116 116
96 67 68 70 111 117 135 126 127 143 148 145 148 136 127 117 115 113 119 120 131 150 173 189 201 199 192 187 177 200 165 150 197 176 137 156 152 123 124 117 117 118 134
93 86 106 97 137 164 143 146 137 132 135 141 153 164 144 137 136 141 130 140 171 203 222 231 228 220 210 212 204 207 205 192 156 164 163 167 135 126 130 136 125 122 141
121 120 111 91 107 181 169 147 144 158 154 149 158 159 166 163 154 154 163 178 199 228 250 251 249 219 197 186 189 195 180 193 185 163 172 165 146 149 164 150 128 133 152
104 123 106 103 106 97 117 121 145 168 155 150 132 130 145 166 180 177 167 177 208 230 243 244 224 190 171 158 164 169 191 183 184 191 195 192 175 137 137 142 139 138 156
124 112 120 134 119 108 119 137 143 151 151 148 134 125 126 131 143 152 156 169 193 206 193 175 164 157 164 175 193 214 201 159 129 157 136 102 108 117 114 119 123 147 162
162 150 125 120 134 134 120 121 144 159 164 160 149 142 138 139 147 162 172 177 175 182 175 179 169 163 170 178 167 157 106 69 57 73 85 100 112 119 122 118 121 130 140
205 185 156 138 135 125 119 110 110 109 109 116 128 132 141 155 163 168 171 182 192 183 173 172 174 176 169 143 131 93 72 83 93 96 110 114 121 118 116 118 119 119 123
197 205 131 101 80 63 50 44 47 48 61 73 81 108 135 160 172 192 196 205 215 208 190 173 172 157 157 127 97 82 82 73 76 84 99 119 137 132 131 123 99 101 110
128 135 123 93 79 69 53 49 47 51 49 61 87 107 127 148 170 196 211 214 203 186 171 159 154 151 124 87 82 77 60 39 47 75 102 121 130 132 127 138 152 153 153
112 97 71 57 50 44 52 58 68 70 74 84 101 129 157 178 183 181 189 206 198 181 170 163 145 122 86 80 83 78 50 44 54 93 105 109 120 128 123 115 121 127 141
78 92 79 55 51 60 70 67 67 79 102 107 118 137 168 186 188 186 195 213 217 204 181 156 124 90 79 67 66 74 68 61 60 98 106 112 110 104 104 116 116 113 114
96 92 92 84 98 92 72 57 57 68 74 100 129 142 147 174 179 187 195 194 193 198 183 151 100 83 81 69 60 55 56 52 53 88 104 106 98 87 78 98 94 103 88
76 47 40 35 40 54 55 50 52 55 81 117 149 161 158 172 186 218 207 206 197 185 143 111 84 74 67 51 25 30 70 64 69 90 106 107 89 78 71 83 81 71 79
42 40 29 36 38 41 51 56 60 68 82 121 158 183 172 186 200 191 193 166 147 131 116 102 93 70 53 26 25 32 59 60 69 79 99 95 76 69 66 77 61 53 71
42 41 45 49 47 59 60 64 74 72 97 139 178 181 173 181 183 177 163 150 128 119 115 104 95 86 56 32 20 21 40 43 87 81 69 67 66 66 61 50 45 54 79
41 27 37 53 58 60 69 79 87 80 98 127 155 157 157 158 147 141 139 141 125 123 122 120 115 81 61 42 29 44 49 44 65 69 63 68 69 59 56 53 63 80 81
36 26 32 37 47 48 64 78 85 86 107 129 138 130 122 122 130 130 127 135 144 161 140 114 116 81 66 51 8 35 46 68 69 101 108 103 89 74 72 74 76 82 72
39 40 46 54 60 60 70 95 74 67 89 125 126 114 120 117 125 136 148 129 127 91 106 94 84 86 83 88 39 16 19 35 51 110 102 88 79 73 67 67 72 73 68